Wetterdaten: Donnerstag, 15.08.2019
Datum Zeit Temp. Aussen Temp. o. S. +5cm Feuchte Auss Luftdruck Regen Sonnenschein Regendauer Solar Windben Empfang
15.08.2019 00:00 19,3 C 15,0 C 14,4 C 76 % 1012,8 hPa 0,0 l/m 0 min 2 min 0 W/m 9,7 km/h (2 Bft) 95,74 %
15.08.2019 00:02 19,2 C 15,0 C 14,4 C 76 % 1012,8 hPa 0,0 l/m 0 min 2 min 0 W/m 9,7 km/h (2 Bft) 96,77 %
15.08.2019 00:04 19,2 C 15,0 C 14,4 C 77 % 1012,7 hPa 0,0 l/m 0 min 2 min 0 W/m 9,7 km/h (2 Bft) 97,87 %
15.08.2019 00:08 19,1 C 14,4 C 14,4 C 78 % 1012,8 hPa 0,2 l/m 0 min 4 min 0 W/m 12,9 km/h (3 Bft) 92,55 %
15.08.2019 00:10 19,0 C 14,4 C 14,4 C 78 % 1012,7 hPa 0,0 l/m 0 min 2 min 0 W/m 9,7 km/h (2 Bft) 95,74 %
15.08.2019 00:12 18,9 C 14,4 C 14,4 C 78 % 1012,7 hPa 0,0 l/m 0 min 2 min 0 W/m 16,1 km/h (3 Bft) 95,65 %
15.08.2019 00:14 18,8 C 14,4 C 14,4 C 79 % 1012,7 hPa 0,0 l/m 0 min 0 min 0 W/m 12,9 km/h (3 Bft) 95,74 %
15.08.2019 00:16 18,7 C 14,4 C 14,4 C 79 % 1012,7 hPa 0,0 l/m 0 min 0 min 0 W/m 9,7 km/h (2 Bft) 95,74 %
15.08.2019 00:18 18,7 C 15,0 C 14,4 C 79 % 1012,6 hPa 0,0 l/m 0 min 2 min 0 W/m 9,7 km/h (2 Bft) 95,74 %
15.08.2019 00:20 18,6 C 14,4 C 14,4 C 80 % 1012,6 hPa 0,0 l/m 0 min 2 min 0 W/m 9,7 km/h (2 Bft) 95,74 %
15.08.2019 00:22 18,6 C 14,4 C 14,4 C 80 % 1012,5 hPa 0,0 l/m 0 min 2 min 0 W/m 6,4 km/h (2 Bft) 95,65 %
15.08.2019 00:24 18,4 C 14,4 C 14,4 C 80 % 1012,5 hPa 0,0 l/m 0 min 2 min 0 W/m 12,9 km/h (3 Bft) 93,62 %
15.08.2019 00:26 18,4 C 14,4 C 14,4 C 81 % 1012,5 hPa 0,0 l/m 0 min 2 min 0 W/m 6,4 km/h (2 Bft) 95,74 %
15.08.2019 00:28 18,3 C 14,4 C 14,4 C 81 % 1012,5 hPa 0,0 l/m 0 min 2 min 0 W/m 16,1 km/h (3 Bft) 95,74 %
15.08.2019 00:30 18,3 C 14,4 C 14,4 C 81 % 1012,4 hPa 0,0 l/m 0 min 0 min 0 W/m 9,7 km/h (2 Bft) 95,74 %
15.08.2019 00:32 18,2 C 15,0 C 14,4 C 82 % 1012,4 hPa 0,0 l/m 0 min 0 min 0 W/m 9,7 km/h (2 Bft) 95,74 %
15.08.2019 00:34 18,1 C 14,4 C 14,4 C 82 % 1012,4 hPa 0,0 l/m 0 min 2 min 0 W/m 9,7 km/h (2 Bft) 97,83 %
15.08.2019 00:36 18,1 C 14,4 C 14,4 C 82 % 1012,5 hPa 0,0 l/m 0 min 2 min 0 W/m 9,7 km/h (2 Bft) 97,87 %
15.08.2019 00:38 18,0 C 14,4 C 14,4 C 83 % 1012,4 hPa 0,0 l/m 0 min 2 min 0 W/m 6,4 km/h (2 Bft) 97,87 %
15.08.2019 00:40 17,9 C 14,4 C 14,4 C 83 % 1012,4 hPa 0,2 l/m 0 min 2 min 0 W/m 6,4 km/h (2 Bft) 97,87 %
15.08.2019 00:42 17,9 C 14,4 C 14,4 C 83 % 1012,5 hPa 0,0 l/m 0 min 2 min 0 W/m 6,4 km/h (2 Bft) 95,74 %
15.08.2019 00:44 17,9 C 14,4 C 14,4 C 83 % 1012,5 hPa 0,0 l/m 0 min 2 min 0 W/m 6,4 km/h (2 Bft) 97,87 %
15.08.2019 00:46 17,8 C 14,4 C 14,4 C 84 % 1012,5 hPa 0,0 l/m 0 min 2 min 0 W/m 16,1 km/h (3 Bft) 100,00 %
15.08.2019 00:48 17,7 C 14,4 C 14,4 C 84 % 1012,6 hPa 0,0 l/m 0 min 2 min 0 W/m 9,7 km/h (2 Bft) 100,00 %
15.08.2019 00:50 17,7 C 14,4 C 13,9 C 84 % 1012,5 hPa 0,0 l/m 0 min 2 min 0 W/m 6,4 km/h (2 Bft) 100,00 %
15.08.2019 00:52 17,6 C 14,4 C 13,9 C 85 % 1012,6 hPa 0,2 l/m 0 min 2 min 0 W/m 6,4 km/h (2 Bft) 100,00 %
15.08.2019 00:54 17,6 C 14,4 C 14,4 C 85 % 1012,6 hPa 0,0 l/m 0 min 2 min 0 W/m 6,4 km/h (2 Bft) 100,00 %
15.08.2019 00:56 17,6 C 14,4 C 14,4 C 85 % 1012,6 hPa 0,0 l/m 0 min 2 min 0 W/m 6,4 km/h (2 Bft) 100,00 %
15.08.2019 00:58 17,5 C 14,4 C 13,9 C 85 % 1012,6 hPa 0,2 l/m 0 min 2 min 0 W/m 6,4 km/h (2 Bft) 100,00 %
15.08.2019 01:00 17,5 C 14,4 C 14,4 C 86 % 1012,6 hPa 0,0 l/m 0 min 2 min 0 W/m 3,2 km/h (1 Bft) 97,87 %
15.08.2019 01:02 17,4 C 14,4 C 14,4 C 86 % 1012,5 hPa 0,0 l/m 0 min 2 min 0 W/m 3,2 km/h (1 Bft) 100,00 %
15.08.2019 01:04 17,4 C 14,4 C 14,4 C 86 % 1012,5 hPa 0,0 l/m 0 min 2 min 0 W/m 3,2 km/h (1 Bft) 100,00 %
15.08.2019 01:06 17,4 C 14,4 C 14,4 C 86 % 1012,4 hPa 0,0 l/m 0 min 2 min 0 W/m 6,4 km/h (2 Bft) 100,00 %
15.08.2019 01:08 17,3 C 14,4 C 14,4 C 86 % 1012,4 hPa 0,2 l/m 0 min 2 min 0 W/m 6,4 km/h (2 Bft) 100,00 %
15.08.2019 01:10 17,3 C 14,4 C 13,9 C 87 % 1012,4 hPa 0,2 l/m 0 min 2 min 0 W/m 6,4 km/h (2 Bft) 100,00 %
15.08.2019 01:12 17,3 C 14,4 C 13,9 C 87 % 1012,3 hPa 0,0 l/m 0 min 2 min 0 W/m 9,7 km/h (2 Bft) 97,87 %
15.08.2019 01:14 17,2 C 14,4 C 14,4 C 87 % 1012,3 hPa 0,0 l/m 0 min 2 min 0 W/m 9,7 km/h (2 Bft) 100,00 %
15.08.2019 01:16 17,2 C 14,4 C 14,4 C 87 % 1012,3 hPa 0,2 l/m 0 min 2 min 0 W/m 6,4 km/h (2 Bft) 97,87 %
15.08.2019 01:18 17,2 C 14,4 C 14,4 C 88 % 1012,3 hPa 0,0 l/m 0 min 2 min 0 W/m 3,2 km/h (1 Bft) 100,00 %
15.08.2019 01:20 17,1 C 14,4 C 13,9 C 88 % 1012,3 hPa 0,2 l/m 0 min 2 min 0 W/m 3,2 km/h (1 Bft) 100,00 %
15.08.2019 01:22 17,1 C 14,4 C 14,4 C 88 % 1012,3 hPa 0,0 l/m 0 min 2 min 0 W/m 9,7 km/h (2 Bft) 100,00 %
15.08.2019 01:24 17,1 C 14,4 C 13,9 C 88 % 1012,3 hPa 0,0 l/m 0 min 2 min 0 W/m 6,4 km/h (2 Bft) 100,00 %
15.08.2019 01:26 17,0 C 14,4 C 14,4 C 88 % 1012,2 hPa 0,2 l/m 0 min 2 min 0 W/m 3,2 km/h (1 Bft) 100,00 %
15.08.2019 01:28 16,9 C 14,4 C 14,4 C 88 % 1012,2 hPa 0,0 l/m 0 min 2 min 0 W/m 6,4 km/h (2 Bft) 97,87 %
15.08.2019 01:30 16,9 C 14,4 C 14,4 C 89 % 1012,2 hPa 0,0 l/m 0 min 2 min 0 W/m 0,0 km/h (0 Bft) 100,00 %
15.08.2019 01:32 16,9 C 14,4 C 14,4 C 89 % 1012,1 hPa 0,2 l/m 0 min 2 min 0 W/m 0,0 km/h (0 Bft) 100,00 %
15.08.2019 01:34 16,9 C 14,4 C 14,4 C 89 % 1012,1 hPa 0,0 l/m 0 min 2 min 0 W/m 6,4 km/h (2 Bft) 97,87 %
15.08.2019 01:36 16,8 C 14,4 C 13,9 C 89 % 1012,0 hPa 0,0 l/m 0 min 0 min 0 W/m 3,2 km/h (1 Bft) 100,00 %
15.08.2019 01:38 16,8 C 14,4 C 14,4 C 89 % 1012,0 hPa 0,0 l/m 0 min 0 min 0 W/m 6,4 km/h (2 Bft) 100,00 %
15.08.2019 01:40 16,8 C 14,4 C 14,4 C 89 % 1011,9 hPa 0,0 l/m 0 min 0 min 0 W/m 6,4 km/h (2 Bft) 100,00 %
15.08.2019 01:42 16,7 C 14,4 C 14,4 C 90 % 1012,0 hPa 0,0 l/m 0 min 0 min 0 W/m 3,2 km/h (1 Bft) 97,87 %
15.08.2019 01:44 16,7 C 14,4 C 14,4 C 90 % 1011,9 hPa 0,0 l/m 0 min 0 min 0 W/m 6,4 km/h (2 Bft) 100,00 %
15.08.2019 01:46 16,7 C 14,4 C 14,4 C 90 % 1011,8 hPa 0,0 l/m 0 min 0 min 0 W/m 9,7 km/h (2 Bft) 100,00 %
15.08.2019 01:48 16,7 C 14,4 C 14,4 C 90 % 1011,8 hPa 0,0 l/m 0 min 0 min 0 W/m 9,7 km/h (2 Bft) 97,87 %
15.08.2019 01:50 16,6 C 14,4 C 14,4 C 90 % 1011,7 hPa 0,0 l/m 0 min 0 min 0 W/m 9,7 km/h (2 Bft) 100,00 %
15.08.2019 01:52 16,6 C 14,4 C 14,4 C 90 % 1011,6 hPa 0,0 l/m 0 min 0 min 0 W/m 9,7 km/h (2 Bft) 100,00 %
15.08.2019 01:54 16,6 C 14,4 C 14,4 C 91 % 1011,5 hPa 0,0 l/m 0 min 0 min 0 W/m 3,2 km/h (1 Bft) 100,00 %
15.08.2019 01:56 16,5 C 15,0 C 14,4 C 91 % 1011,5 hPa 0,0 l/m 0 min 0 min 0 W/m 9,7 km/h (2 Bft) 100,00 %
15.08.2019 01:58 16,5 C 15,0 C 14,4 C 91 % 1011,4 hPa 0,0 l/m 0 min 0 min 0 W/m 9,7 km/h (2 Bft) 100,00 %
15.08.2019 02:00 16,5 C 15,0 C 14,4 C 91 % 1011,5 hPa 0,0 l/m 0 min 0 min 0 W/m 9,7 km/h (2 Bft) 93,62 %
15.08.2019 02:02 16,4 C 15,0 C 14,4 C 91 % 1011,5 hPa 0,0 l/m 0 min 0 min 0 W/m 6,4 km/h (2 Bft) 95,74 %
15.08.2019 02:04 16,4 C 15,0 C 14,4 C 91 % 1011,4 hPa 0,0 l/m 0 min 2 min 0 W/m 16,1 km/h (3 Bft) 97,87 %
15.08.2019 02:06 16,4 C 15,0 C 14,4 C 91 % 1011,5 hPa 0,0 l/m 0 min 2 min 0 W/m 9,7 km/h (2 Bft) 97,87 %
15.08.2019 02:08 16,4 C 15,0 C 14,4 C 92 % 1011,4 hPa 0,0 l/m 0 min 0 min 0 W/m 9,7 km/h (2 Bft) 95,65 %
15.08.2019 02:10 16,4 C 14,4 C 14,4 C 92 % 1011,5 hPa 0,0 l/m 0 min 2 min 0 W/m 9,7 km/h (2 Bft) 93,62 %
15.08.2019 02:12 16,4 C 14,4 C 14,4 C 92 % 1011,4 hPa 0,0 l/m 0 min 2 min 0 W/m 6,4 km/h (2 Bft) 95,74 %
15.08.2019 02:14 16,3 C 14,4 C 14,4 C 92 % 1011,2 hPa 0,0 l/m 0 min 2 min 0 W/m 9,7 km/h (2 Bft) 97,87 %
15.08.2019 02:16 16,3 C 14,4 C 14,4 C 92 % 1011,2 hPa 0,0 l/m 0 min 2 min 0 W/m 9,7 km/h (2 Bft) 97,87 %
15.08.2019 02:18 16,3 C 14,4 C 14,4 C 92 % 1011,3 hPa 0,0 l/m 0 min 0 min 0 W/m 9,7 km/h (2 Bft) 95,65 %
15.08.2019 02:20 16,3 C 14,4 C 13,9 C 92 % 1011,2 hPa 0,0 l/m 0 min 0 min 0 W/m 9,7 km/h (2 Bft) 95,74 %
15.08.2019 02:22 16,3 C 14,4 C 13,9 C 92 % 1011,1 hPa 0,0 l/m 0 min 0 min 0 W/m 12,9 km/h (3 Bft) 95,74 %
15.08.2019 02:24 16,3 C 14,4 C 13,9 C 92 % 1011,2 hPa 0,0 l/m 0 min 0 min 0 W/m 9,7 km/h (2 Bft) 95,74 %
15.08.2019 02:26 16,3 C 14,4 C 13,9 C 92 % 1011,2 hPa 0,0 l/m 0 min 0 min 0 W/m 6,4 km/h (2 Bft) 93,62 %
15.08.2019 02:28 16,3 C 14,4 C 13,9 C 92 % 1011,1 hPa 0,0 l/m 0 min 0 min 0 W/m 16,1 km/h (3 Bft) 95,74 %
15.08.2019 02:30 16,3 C 14,4 C 13,9 C 92 % 1011,1 hPa 0,0 l/m 0 min 0 min 0 W/m 19,3 km/h (3 Bft) 95,65 %
15.08.2019 02:32 16,2 C 14,4 C 13,9 C 92 % 1011,1 hPa 0,0 l/m 0 min 0 min 0 W/m 9,7 km/h (2 Bft) 95,74 %
15.08.2019 02:34 16,2 C 14,4 C 13,9 C 92 % 1011,0 hPa 0,0 l/m 0 min 0 min 0 W/m 9,7 km/h (2 Bft) 93,62 %
15.08.2019 02:36 16,2 C 14,4 C 13,9 C 92 % 1011,0 hPa 0,0 l/m 0 min 0 min 0 W/m 12,9 km/h (3 Bft) 95,74 %
15.08.2019 02:38 16,2 C 15,0 C 14,4 C 92 % 1010,9 hPa 0,0 l/m 0 min 0 min 0 W/m 16,1 km/h (3 Bft) 93,62 %
15.08.2019 02:40 16,2 C 15,0 C 14,4 C 92 % 1010,9 hPa 0,0 l/m 0 min 0 min 0 W/m 12,9 km/h (3 Bft) 93,62 %
15.08.2019 02:42 16,2 C 15,0 C 14,4 C 92 % 1010,9 hPa 0,0 l/m 0 min 0 min 0 W/m 6,4 km/h (2 Bft) 95,65 %
15.08.2019 02:44 16,2 C 15,0 C 14,4 C 92 % 1010,9 hPa 0,0 l/m 0 min 0 min 0 W/m 3,2 km/h (1 Bft) 97,87 %
15.08.2019 02:46 16,2 C 15,0 C 14,4 C 92 % 1010,9 hPa 0,0 l/m 0 min 0 min 0 W/m 9,7 km/h (2 Bft) 93,62 %
15.08.2019 02:48 16,2 C 15,0 C 14,4 C 92 % 1010,8 hPa 0,0 l/m 0 min 0 min 0 W/m 9,7 km/h (2 Bft) 97,87 %
15.08.2019 02:50 16,2 C 15,0 C 14,4 C 92 % 1010,8 hPa 0,0 l/m 0 min 0 min 0 W/m 9,7 km/h (2 Bft) 95,74 %
15.08.2019 02:52 16,2 C 15,0 C 14,4 C 92 % 1010,7 hPa 0,0 l/m 0 min 0 min 0 W/m 6,4 km/h (2 Bft) 91,49 %
15.08.2019 02:54 16,2 C 15,0 C 14,4 C 92 % 1010,7 hPa 0,0 l/m 0 min 0 min 0 W/m 6,4 km/h (2 Bft) 93,48 %
15.08.2019 02:56 16,2 C 15,0 C 14,4 C 92 % 1010,7 hPa 0,0 l/m 0 min 0 min 0 W/m 6,4 km/h (2 Bft) 93,62 %
15.08.2019 02:58 16,3 C 15,0 C 14,4 C 93 % 1010,6 hPa 0,0 l/m 0 min 0 min 0 W/m 6,4 km/h (2 Bft) 93,62 %
15.08.2019 03:00 16,2 C 15,0 C 14,4 C 93 % 1010,7 hPa 0,0 l/m 0 min 0 min 0 W/m 6,4 km/h (2 Bft) 91,49 %
15.08.2019 03:02 16,2 C 15,0 C 14,4 C 93 % 1010,6 hPa 0,0 l/m 0 min 0 min 0 W/m 9,7 km/h (2 Bft) 93,62 %
15.08.2019 03:04 16,3 C 15,0 C 14,4 C 93 % 1010,6 hPa 0,0 l/m 0 min 0 min 0 W/m 9,7 km/h (2 Bft) 95,74 %
15.08.2019 03:06 16,2 C 15,0 C 14,4 C 93 % 1010,7 hPa 0,0 l/m 0 min 0 min 0 W/m 0,0 km/h (0 Bft) 97,83 %
15.08.2019 03:08 16,2 C 15,0 C 14,4 C 93 % 1010,5 hPa 0,0 l/m 0 min 0 min 0 W/m 0,0 km/h (0 Bft) 97,87 %
15.08.2019 03:10 16,2 C 15,0 C 14,4 C 93 % 1010,5 hPa 0,0 l/m 0 min 0 min 0 W/m 0,0 km/h (0 Bft) 97,87 %
15.08.2019 03:12 16,2 C 15,0 C 14,4 C 93 % 1010,5 hPa 0,0 l/m 0 min 0 min 0 W/m 0,0 km/h (0 Bft) 95,74 %
15.08.2019 03:14 16,2 C 15,0 C 14,4 C 93 % 1010,5 hPa 0,0 l/m 0 min 0 min 0 W/m 3,2 km/h (1 Bft) 97,87 %
15.08.2019 03:16 16,2 C 15,0 C 14,4 C 93 % 1010,5 hPa 0,0 l/m 0 min 0 min 0 W/m 6,4 km/h (2 Bft) 97,87 %
15.08.2019 03:18 16,2 C 15,0 C 14,4 C 93 % 1010,5 hPa 0,0 l/m 0 min 0 min 0 W/m 3,2 km/h (1 Bft) 95,65 %
15.08.2019 03:20 16,2 C 15,0 C 14,4 C 93 % 1010,5 hPa 0,0 l/m 0 min 0 min 0 W/m 3,2 km/h (1 Bft) 97,87 %
15.08.2019 03:22 16,2 C 15,0 C 14,4 C 93 % 1010,5 hPa 0,0 l/m 0 min 0 min 0 W/m 3,2 km/h (1 Bft) 97,87 %
15.08.2019 03:24 16,2 C 15,0 C 14,4 C 93 % 1010,4 hPa 0,0 l/m 0 min 0 min 0 W/m 6,4 km/h (2 Bft) 97,87 %
15.08.2019 03:26 16,2 C 15,0 C 14,4 C 93 % 1010,5 hPa 0,0 l/m 0 min 0 min 0 W/m 6,4 km/h (2 Bft) 95,74 %
15.08.2019 03:28 16,2 C 15,0 C 14,4 C 93 % 1010,4 hPa 0,0 l/m 0 min 0 min 0 W/m 12,9 km/h (3 Bft) 97,83 %
15.08.2019 03:30 16,2 C 15,0 C 14,4 C 93 % 1010,4 hPa 0,0 l/m 0 min 0 min 0 W/m 3,2 km/h (1 Bft) 97,87 %
15.08.2019 03:32 16,2 C 15,0 C 14,4 C 93 % 1010,4 hPa 0,0 l/m 0 min 0 min 0 W/m 3,2 km/h (1 Bft) 97,87 %
15.08.2019 03:34 16,2 C 15,0 C 14,4 C 93 % 1010,4 hPa 0,0 l/m 0 min 0 min 0 W/m 3,2 km/h (1 Bft) 95,74 %
15.08.2019 03:36 16,2 C 15,0 C 14,4 C 93 % 1010,3 hPa 0,0 l/m 0 min 0 min 0 W/m 3,2 km/h (1 Bft) 95,74 %
15.08.2019 03:38 16,2 C 15,0 C 14,4 C 93 % 1010,3 hPa 0,0 l/m 0 min 0 min 0 W/m 6,4 km/h (2 Bft) 100,00 %
15.08.2019 03:40 16,2 C 15,0 C 14,4 C 93 % 1010,3 hPa 0,0 l/m 0 min 0 min 0 W/m 3,2 km/h (1 Bft) 100,00 %
15.08.2019 03:42 16,2 C 15,0 C 14,4 C 93 % 1010,3 hPa 0,0 l/m 0 min 0 min 0 W/m 6,4 km/h (2 Bft) 97,87 %
15.08.2019 03:44 16,2 C 15,0 C 14,4 C 93 % 1010,3 hPa 0,0 l/m 0 min 0 min 0 W/m 6,4 km/h (2 Bft) 100,00 %
15.08.2019 03:46 16,2 C 15,0 C 14,4 C 93 % 1010,3 hPa 0,0 l/m 0 min 0 min 0 W/m 3,2 km/h (1 Bft) 100,00 %
15.08.2019 03:48 16,2 C 15,0 C 14,4 C 93 % 1010,2 hPa 0,0 l/m 0 min 0 min 0 W/m 6,4 km/h (2 Bft) 100,00 %
15.08.2019 03:50 16,2 C 15,0 C 14,4 C 93 % 1010,3 hPa 0,0 l/m 0 min 0 min 0 W/m 6,4 km/h (2 Bft) 100,00 %
15.08.2019 03:53 16,2 C 15,0 C 14,4 C 93 % 1010,2 hPa 0,0 l/m 0 min 0 min 0 W/m 9,7 km/h (2 Bft) 100,00 %
15.08.2019 03:54 16,2 C 15,0 C 14,4 C 93 % 1010,2 hPa 0,0 l/m 0 min 0 min 0 W/m 9,7 km/h (2 Bft) 100,00 %
15.08.2019 03:56 16,2 C 15,0 C 14,4 C 93 % 1010,2 hPa 0,0 l/m 0 min 0 min 0 W/m 6,4 km/h (2 Bft) 100,00 %
15.08.2019 03:58 16,2 C 15,0 C 14,4 C 93 % 1010,2 hPa 0,0 l/m 0 min 0 min 0 W/m 9,7 km/h (2 Bft) 97,87 %
15.08.2019 04:00 16,2 C 15,0 C 14,4 C 93 % 1010,2 hPa 0,0 l/m 0 min 2 min 0 W/m 9,7 km/h (2 Bft) 97,87 %
15.08.2019 04:05 16,2 C 14,4 C 14,4 C 93 % 1010,2 hPa 0,0 l/m 0 min 5 min 0 W/m 12,9 km/h (3 Bft) 98,44 %
15.08.2019 04:06 16,2 C 14,4 C 13,9 C 93 % 1010,2 hPa 0,0 l/m 0 min 1 min 0 W/m 12,9 km/h (3 Bft) 100,00 %
15.08.2019 04:08 16,3 C 14,4 C 14,4 C 93 % 1010,2 hPa 0,0 l/m 0 min 2 min 0 W/m 9,7 km/h (2 Bft) 100,00 %
15.08.2019 04:10 16,3 C 14,4 C 13,9 C 93 % 1010,3 hPa 0,0 l/m 0 min 2 min 0 W/m 9,7 km/h (2 Bft) 100,00 %
15.08.2019 04:12 16,3 C 14,4 C 13,9 C 93 % 1010,1 hPa 0,0 l/m 0 min 2 min 0 W/m 6,4 km/h (2 Bft) 100,00 %
15.08.2019 04:14 16,3 C 14,4 C 13,9 C 93 % 1010,2 hPa 0,0 l/m 0 min 2 min 0 W/m 3,2 km/h (1 Bft) 100,00 %
15.08.2019 04:16 16,3 C 14,4 C 13,9 C 93 % 1010,2 hPa 0,0 l/m 0 min 2 min 0 W/m 6,4 km/h (2 Bft) 100,00 %
15.08.2019 04:18 16,3 C 14,4 C 13,9 C 93 % 1010,1 hPa 0,2 l/m 0 min 2 min 0 W/m 3,2 km/h (1 Bft) 100,00 %
15.08.2019 04:20 16,3 C 14,4 C 13,9 C 93 % 1010,1 hPa 0,0 l/m 0 min 0 min 0 W/m 6,4 km/h (2 Bft) 100,00 %
15.08.2019 04:22 16,3 C 14,4 C 13,9 C 93 % 1010,0 hPa 0,0 l/m 0 min 2 min 0 W/m 6,4 km/h (2 Bft) 100,00 %
15.08.2019 04:24 16,3 C 14,4 C 13,9 C 93 % 1010,0 hPa 0,0 l/m 0 min 2 min 0 W/m 6,4 km/h (2 Bft) 100,00 %
15.08.2019 04:26 16,3 C 14,4 C 13,9 C 93 % 1010,1 hPa 0,0 l/m 0 min 2 min 0 W/m 6,4 km/h (2 Bft) 100,00 %
15.08.2019 04:28 16,3 C 14,4 C 13,9 C 93 % 1010,0 hPa 0,0 l/m 0 min 2 min 0 W/m 9,7 km/h (2 Bft) 100,00 %
15.08.2019 04:30 16,3 C 14,4 C 13,9 C 93 % 1009,9 hPa 0,0 l/m 0 min 2 min 0 W/m 12,9 km/h (3 Bft) 100,00 %
15.08.2019 04:32 16,3 C 14,4 C 13,9 C 93 % 1010,0 hPa 0,0 l/m 0 min 2 min 0 W/m 6,4 km/h (2 Bft) 100,00 %
15.08.2019 04:34 16,2 C 14,4 C 13,9 C 93 % 1010,0 hPa 0,0 l/m 0 min 2 min 0 W/m 9,7 km/h (2 Bft) 100,00 %
15.08.2019 04:36 16,2 C 14,4 C 13,9 C 93 % 1009,9 hPa 0,0 l/m 0 min 2 min 0 W/m 9,7 km/h (2 Bft) 100,00 %
15.08.2019 04:38 16,2 C 14,4 C 13,9 C 93 % 1009,9 hPa 0,0 l/m 0 min 2 min 0 W/m 12,9 km/h (3 Bft) 100,00 %
15.08.2019 04:40 16,2 C 14,4 C 14,4 C 93 % 1009,9 hPa 0,0 l/m 0 min 2 min 0 W/m 12,9 km/h (3 Bft) 100,00 %
15.08.2019 04:42 16,2 C 14,4 C 14,4 C 93 % 1009,9 hPa 0,0 l/m 0 min 2 min 0 W/m 9,7 km/h (2 Bft) 100,00 %
15.08.2019 04:44 16,2 C 14,4 C 14,4 C 94 % 1009,9 hPa 0,0 l/m 0 min 2 min 0 W/m 12,9 km/h (3 Bft) 97,87 %
15.08.2019 04:46 16,2 C 14,4 C 14,4 C 94 % 1009,7 hPa 0,0 l/m 0 min 2 min 0 W/m 12,9 km/h (3 Bft) 97,87 %
15.08.2019 04:48 16,2 C 14,4 C 14,4 C 94 % 1009,7 hPa 0,0 l/m 0 min 0 min 0 W/m 12,9 km/h (3 Bft) 97,87 %
15.08.2019 04:50 16,2 C 14,4 C 14,4 C 94 % 1009,8 hPa 0,0 l/m 0 min 0 min 0 W/m 19,3 km/h (3 Bft) 100,00 %
15.08.2019 04:52 16,2 C 14,4 C 14,4 C 94 % 1009,9 hPa 0,0 l/m 0 min 0 min 0 W/m 16,1 km/h (3 Bft) 97,87 %
15.08.2019 04:54 16,2 C 14,4 C 14,4 C 94 % 1009,8 hPa 0,0 l/m 0 min 2 min 0 W/m 16,1 km/h (3 Bft) 97,87 %
15.08.2019 04:56 16,2 C 14,4 C 14,4 C 94 % 1009,8 hPa 0,0 l/m 0 min 2 min 0 W/m 12,9 km/h (3 Bft) 100,00 %
15.08.2019 04:58 16,2 C 14,4 C 14,4 C 94 % 1009,7 hPa 0,0 l/m 0 min 0 min 0 W/m 9,7 km/h (2 Bft) 97,87 %
15.08.2019 05:00 16,2 C 14,4 C 14,4 C 94 % 1009,7 hPa 0,0 l/m 0 min 0 min 0 W/m 12,9 km/h (3 Bft) 97,87 %
15.08.2019 05:02 16,2 C 14,4 C 14,4 C 94 % 1009,6 hPa 0,0 l/m 0 min 0 min 0 W/m 16,1 km/h (3 Bft) 97,83 %
15.08.2019 05:04 16,2 C 14,4 C 14,4 C 94 % 1009,5 hPa 0,0 l/m 0 min 0 min 0 W/m 19,3 km/h (3 Bft) 97,87 %
15.08.2019 05:06 16,2 C 14,4 C 14,4 C 94 % 1009,6 hPa 0,0 l/m 0 min 0 min 0 W/m 32,2 km/h (5 Bft) 97,87 %
15.08.2019 05:08 16,2 C 14,4 C 14,4 C 94 % 1009,5 hPa 0,0 l/m 0 min 0 min 0 W/m 32,2 km/h (5 Bft) 97,87 %
15.08.2019 05:10 16,2 C 14,4 C 14,4 C 94 % 1009,5 hPa 0,0 l/m 0 min 0 min 0 W/m 22,5 km/h (4 Bft) 97,87 %
15.08.2019 05:12 16,2 C 14,4 C 14,4 C 94 % 1009,5 hPa 0,0 l/m 0 min 0 min 0 W/m 22,5 km/h (4 Bft) 97,87 %
15.08.2019 05:14 16,2 C 14,4 C 14,4 C 94 % 1009,5 hPa 0,0 l/m 0 min 0 min 0 W/m 19,3 km/h (3 Bft) 97,83 %
15.08.2019 05:16 16,1 C 14,4 C 14,4 C 94 % 1009,4 hPa 0,0 l/m 0 min 0 min 0 W/m 29,0 km/h (5 Bft) 97,87 %
15.08.2019 05:18 16,1 C 14,4 C 14,4 C 94 % 1009,5 hPa 0,0 l/m 0 min 0 min 0 W/m 19,3 km/h (3 Bft) 97,87 %
15.08.2019 05:20 16,1 C 14,4 C 14,4 C 94 % 1009,4 hPa 0,0 l/m 0 min 0 min 0 W/m 22,5 km/h (4 Bft) 97,87 %
15.08.2019 05:22 16,1 C 14,4 C 14,4 C 94 % 1009,4 hPa 0,0 l/m 0 min 0 min 0 W/m 16,1 km/h (3 Bft) 97,87 %
15.08.2019 05:24 16,1 C 14,4 C 14,4 C 94 % 1009,4 hPa 0,0 l/m 0 min 0 min 0 W/m 22,5 km/h (4 Bft) 93,62 %
15.08.2019 05:26 16,1 C 14,4 C 14,4 C 94 % 1009,3 hPa 0,0 l/m 0 min 0 min 0 W/m 12,9 km/h (3 Bft) 97,83 %
15.08.2019 05:28 16,1 C 14,4 C 14,4 C 94 % 1009,3 hPa 0,0 l/m 0 min 0 min 0 W/m 9,7 km/h (2 Bft) 97,87 %
15.08.2019 05:30 16,1 C 15,0 C 14,4 C 95 % 1009,3 hPa 0,0 l/m 0 min 0 min 0 W/m 16,1 km/h (3 Bft) 97,87 %
15.08.2019 05:32 16,1 C 15,0 C 14,4 C 95 % 1009,3 hPa 0,0 l/m 0 min 0 min 0 W/m 12,9 km/h (3 Bft) 97,87 %
15.08.2019 05:34 16,1 C 14,4 C 14,4 C 95 % 1009,3 hPa 0,0 l/m 0 min 0 min 0 W/m 22,5 km/h (4 Bft) 98,15 %
15.08.2019 05:36 16,1 C 14,4 C 14,4 C 95 % 1009,3 hPa 0,0 l/m 0 min 2 min 0 W/m 19,3 km/h (3 Bft) 97,87 %
15.08.2019 05:38 16,1 C 14,4 C 14,4 C 95 % 1009,4 hPa 0,0 l/m 0 min 0 min 0 W/m 22,5 km/h (4 Bft) 97,92 %
15.08.2019 05:40 16,1 C 14,4 C 14,4 C 95 % 1009,4 hPa 0,0 l/m 0 min 0 min 0 W/m 12,9 km/h (3 Bft) 95,83 %
15.08.2019 05:42 16,1 C 14,4 C 14,4 C 95 % 1009,3 hPa 0,0 l/m 0 min 0 min 0 W/m 19,3 km/h (3 Bft) 97,92 %
15.08.2019 05:44 16,1 C 14,4 C 14,4 C 95 % 1009,3 hPa 0,0 l/m 0 min 0 min 0 W/m 12,9 km/h (3 Bft) 95,74 %
15.08.2019 05:46 16,0 C 14,4 C 14,4 C 95 % 1009,3 hPa 0,0 l/m 0 min 0 min 0 W/m 19,3 km/h (3 Bft) 93,62 %
15.08.2019 05:48 16,0 C 14,4 C 14,4 C 95 % 1009,3 hPa 0,0 l/m 0 min 0 min 0 W/m 16,1 km/h (3 Bft) 93,62 %
15.08.2019 05:50 16,0 C 14,4 C 14,4 C 95 % 1009,3 hPa 0,0 l/m 0 min 0 min 0 W/m 19,3 km/h (3 Bft) 97,14 %
15.08.2019 05:52 16,0 C 14,4 C 14,4 C 95 % 1009,3 hPa 0,0 l/m 0 min 0 min 0 W/m 19,3 km/h (3 Bft) 95,74 %
15.08.2019 05:54 16,0 C 14,4 C 14,4 C 95 % 1009,3 hPa 0,0 l/m 0 min 0 min 0 W/m 12,9 km/h (3 Bft) 93,62 %
15.08.2019 05:56 16,0 C 14,4 C 14,4 C 95 % 1009,3 hPa 0,0 l/m 0 min 0 min 0 W/m 12,9 km/h (3 Bft) 94,34 %
15.08.2019 05:58 16,0 C 14,4 C 14,4 C 95 % 1009,3 hPa 0,0 l/m 0 min 0 min 0 W/m 22,5 km/h (4 Bft) 95,92 %
15.08.2019 06:00 16,0 C 14,4 C 14,4 C 95 % 1009,2 hPa 0,0 l/m 0 min 0 min 0 W/m 16,1 km/h (3 Bft) 95,74 %
15.08.2019 06:02 16,0 C 14,4 C 14,4 C 95 % 1009,3 hPa 0,0 l/m 0 min 0 min 0 W/m 19,3 km/h (3 Bft) 95,83 %
15.08.2019 06:04 16,0 C 14,4 C 14,4 C 95 % 1009,2 hPa 0,0 l/m 0 min 0 min 0 W/m 22,5 km/h (4 Bft) 93,75 %
15.08.2019 06:08 15,9 C 14,4 C 14,4 C 95 % 1009,2 hPa 0,0 l/m 0 min 0 min 0 W/m 16,1 km/h (3 Bft) 94,68 %
15.08.2019 06:10 15,9 C 14,4 C 14,4 C 95 % 1009,2 hPa 0,0 l/m 0 min 0 min 0 W/m 12,9 km/h (3 Bft) 94,44 %
15.08.2019 06:12 15,9 C 14,4 C 14,4 C 95 % 1009,3 hPa 0,0 l/m 0 min 0 min 0 W/m 9,7 km/h (2 Bft) 93,48 %
15.08.2019 06:14 15,9 C 14,4 C 14,4 C 95 % 1009,3 hPa 0,0 l/m 0 min 0 min 0 W/m 9,7 km/h (2 Bft) 95,74 %
15.08.2019 06:16 15,9 C 14,4 C 14,4 C 95 % 1009,2 hPa 0,0 l/m 0 min 0 min 0 W/m 16,1 km/h (3 Bft) 95,74 %
15.08.2019 06:18 15,9 C 14,4 C 14,4 C 95 % 1009,2 hPa 0,0 l/m 0 min 0 min 0 W/m 12,9 km/h (3 Bft) 96,30 %
15.08.2019 06:20 15,9 C 14,4 C 14,4 C 95 % 1009,2 hPa 0,0 l/m 0 min 0 min 0 W/m 9,7 km/h (2 Bft) 95,74 %
15.08.2019 06:22 15,9 C 14,4 C 14,4 C 96 % 1009,2 hPa 0,0 l/m 0 min 0 min 0 W/m 9,7 km/h (2 Bft) 95,83 %
15.08.2019 06:24 15,9 C 14,4 C 14,4 C 96 % 1009,2 hPa 0,0 l/m 0 min 0 min 0 W/m 9,7 km/h (2 Bft) 97,92 %
15.08.2019 06:26 15,9 C 14,4 C 14,4 C 96 % 1009,2 hPa 0,0 l/m 0 min 0 min 0 W/m 19,3 km/h (3 Bft) 97,87 %
15.08.2019 06:28 15,9 C 15,0 C 14,4 C 96 % 1009,2 hPa 0,0 l/m 0 min 0 min 0 W/m 19,3 km/h (3 Bft) 97,87 %
15.08.2019 06:30 15,9 C 15,0 C 14,4 C 96 % 1009,2 hPa 0,0 l/m 0 min 0 min 0 W/m 16,1 km/h (3 Bft) 97,83 %
15.08.2019 06:32 15,9 C 15,0 C 14,4 C 96 % 1009,2 hPa 0,0 l/m 0 min 0 min 1 W/m 19,3 km/h (3 Bft) 97,87 %
15.08.2019 06:34 15,9 C 15,0 C 14,4 C 96 % 1009,2 hPa 0,0 l/m 0 min 0 min 5 W/m 12,9 km/h (3 Bft) 97,87 %
15.08.2019 06:36 15,9 C 15,0 C 14,4 C 96 % 1009,2 hPa 0,0 l/m 0 min 0 min 6 W/m 0,0 km/h (0 Bft) 97,87 %
15.08.2019 06:38 15,9 C 15,0 C 14,4 C 96 % 1009,2 hPa 0,0 l/m 0 min 0 min 8 W/m 9,7 km/h (2 Bft) 97,87 %
15.08.2019 06:40 15,9 C 15,0 C 14,4 C 96 % 1009,1 hPa 0,0 l/m 0 min 0 min 9 W/m 16,1 km/h (3 Bft) 97,87 %
15.08.2019 06:42 15,9 C 15,0 C 14,4 C 96 % 1009,2 hPa 0,0 l/m 0 min 0 min 10 W/m 16,1 km/h (3 Bft) 93,48 %
15.08.2019 06:44 15,9 C 15,0 C 14,4 C 96 % 1009,2 hPa 0,0 l/m 0 min 0 min 11 W/m 12,9 km/h (3 Bft) 100,00 %
15.08.2019 06:46 15,9 C 15,0 C 14,4 C 96 % 1009,2 hPa 0,0 l/m 0 min 0 min 13 W/m 16,1 km/h (3 Bft) 100,00 %
15.08.2019 06:48 15,9 C 15,0 C 14,4 C 96 % 1009,2 hPa 0,0 l/m 0 min 0 min 12 W/m 16,1 km/h (3 Bft) 100,00 %
15.08.2019 06:50 15,9 C 15,0 C 14,4 C 96 % 1009,2 hPa 0,0 l/m 0 min 0 min 14 W/m 19,3 km/h (3 Bft) 100,00 %
15.08.2019 06:54 15,9 C 15,0 C 14,4 C 96 % 1009,2 hPa 0,0 l/m 0 min 0 min 19 W/m 12,9 km/h (3 Bft) 100,00 %
15.08.2019 06:56 15,9 C 15,0 C 14,4 C 96 % 1009,2 hPa 0,0 l/m 0 min 0 min 19 W/m 12,9 km/h (3 Bft) 100,00 %
15.08.2019 06:58 16,0 C 15,0 C 14,4 C 96 % 1009,2 hPa 0,0 l/m 0 min 0 min 18 W/m 19,3 km/h (3 Bft) 97,83 %
15.08.2019 07:00 16,0 C 15,0 C 14,4 C 96 % 1009,2 hPa 0,0 l/m 0 min 0 min 18 W/m 16,1 km/h (3 Bft) 100,00 %
15.08.2019 07:02 16,0 C 15,0 C 14,4 C 96 % 1009,2 hPa 0,0 l/m 0 min 0 min 18 W/m 16,1 km/h (3 Bft) 100,00 %
15.08.2019 07:04 16,0 C 15,0 C 14,4 C 96 % 1009,2 hPa 0,0 l/m 0 min 0 min 18 W/m 12,9 km/h (3 Bft) 100,00 %
15.08.2019 07:06 16,0 C 15,0 C 14,4 C 96 % 1009,2 hPa 0,0 l/m 0 min 0 min 18 W/m 9,7 km/h (2 Bft) 100,00 %
15.08.2019 07:08 16,0 C 15,0 C 14,4 C 96 % 1009,2 hPa 0,0 l/m 0 min 0 min 19 W/m 16,1 km/h (3 Bft) 100,00 %
15.08.2019 07:10 16,0 C 15,0 C 14,4 C 96 % 1009,2 hPa 0,0 l/m 0 min 0 min 19 W/m 12,9 km/h (3 Bft) 100,00 %
15.08.2019 07:12 16,1 C 15,0 C 14,4 C 96 % 1009,2 hPa 0,0 l/m 0 min 0 min 17 W/m 16,1 km/h (3 Bft) 100,00 %
15.08.2019 07:14 16,1 C 15,0 C 14,4 C 96 % 1009,3 hPa 0,0 l/m 0 min 2 min 18 W/m 12,9 km/h (3 Bft) 100,00 %
15.08.2019 07:16 16,1 C 15,0 C 14,4 C 96 % 1009,2 hPa 0,0 l/m 0 min 2 min 18 W/m 9,7 km/h (2 Bft) 100,00 %
15.08.2019 07:18 16,1 C 15,0 C 14,4 C 96 % 1009,3 hPa 0,0 l/m 0 min 0 min 17 W/m 22,5 km/h (4 Bft) 100,00 %
15.08.2019 07:20 16,1 C 15,0 C 14,4 C 96 % 1009,3 hPa 0,0 l/m 0 min 0 min 20 W/m 12,9 km/h (3 Bft) 100,00 %
15.08.2019 07:22 16,1 C 15,0 C 14,4 C 96 % 1009,2 hPa 0,0 l/m 0 min 0 min 20 W/m 16,1 km/h (3 Bft) 100,00 %
15.08.2019 07:24 16,1 C 15,0 C 14,4 C 96 % 1009,3 hPa 0,0 l/m 0 min 0 min 21 W/m 16,1 km/h (3 Bft) 100,00 %
15.08.2019 07:26 16,1 C 15,0 C 14,4 C 96 % 1009,3 hPa 0,0 l/m 0 min 2 min 25 W/m 22,5 km/h (4 Bft) 97,87 %
15.08.2019 07:28 16,1 C 15,0 C 14,4 C 96 % 1009,2 hPa 0,0 l/m 0 min 2 min 28 W/m 16,1 km/h (3 Bft) 97,87 %
15.08.2019 07:30 16,1 C 15,0 C 14,4 C 96 % 1009,3 hPa 0,0 l/m 0 min 2 min 30 W/m 9,7 km/h (2 Bft) 95,74 %
15.08.2019 07:32 16,2 C 15,0 C 14,4 C 96 % 1009,3 hPa 0,0 l/m 0 min 2 min 28 W/m 16,1 km/h (3 Bft) 97,83 %
15.08.2019 07:34 16,2 C 15,0 C 14,4 C 96 % 1009,3 hPa 0,0 l/m 0 min 0 min 31 W/m 6,4 km/h (2 Bft) 97,87 %
15.08.2019 07:36 16,2 C 15,0 C 14,4 C 96 % 1009,3 hPa 0,0 l/m 0 min 0 min 34 W/m 12,9 km/h (3 Bft) 100,00 %
15.08.2019 07:38 16,2 C 15,0 C 14,4 C 96 % 1009,3 hPa 0,2 l/m 0 min 0 min 35 W/m 22,5 km/h (4 Bft) 97,87 %
15.08.2019 07:40 16,2 C 15,0 C 14,4 C 96 % 1009,3 hPa 0,0 l/m 0 min 0 min 33 W/m 12,9 km/h (3 Bft) 97,87 %
15.08.2019 07:42 16,2 C 15,0 C 14,4 C 96 % 1009,3 hPa 0,0 l/m 0 min 0 min 42 W/m 19,3 km/h (3 Bft) 97,87 %
15.08.2019 07:44 16,2 C 15,0 C 14,4 C 96 % 1009,3 hPa 0,0 l/m 0 min 0 min 42 W/m 12,9 km/h (3 Bft) 100,00 %
15.08.2019 07:46 16,2 C 15,0 C 14,4 C 96 % 1009,3 hPa 0,0 l/m 0 min 0 min 39 W/m 16,1 km/h (3 Bft) 100,00 %
15.08.2019 07:48 16,2 C 15,0 C 15,0 C 96 % 1009,3 hPa 0,0 l/m 0 min 0 min 45 W/m 19,3 km/h (3 Bft) 100,00 %
15.08.2019 07:50 16,2 C 15,0 C 15,0 C 96 % 1009,3 hPa 0,0 l/m 0 min 0 min 52 W/m 16,1 km/h (3 Bft) 97,87 %
15.08.2019 07:52 16,2 C 15,0 C 15,0 C 96 % 1009,2 hPa 0,0 l/m 0 min 0 min 57 W/m 19,3 km/h (3 Bft) 97,87 %
15.08.2019 07:54 16,3 C 15,0 C 15,0 C 96 % 1009,3 hPa 0,0 l/m 0 min 0 min 61 W/m 19,3 km/h (3 Bft) 97,87 %
15.08.2019 07:56 16,3 C 15,0 C 15,0 C 96 % 1009,3 hPa 0,0 l/m 0 min 0 min 65 W/m 19,3 km/h (3 Bft) 97,83 %
15.08.2019 07:58 16,3 C 15,6 C 15,0 C 96 % 1009,3 hPa 0,0 l/m 0 min 0 min 73 W/m 19,3 km/h (3 Bft) 97,87 %
15.08.2019 08:00 16,3 C 15,6 C 15,0 C 96 % 1009,2 hPa 0,0 l/m 0 min 0 min 76 W/m 19,3 km/h (3 Bft) 97,87 %
15.08.2019 08:02 16,3 C 15,6 C 15,0 C 96 % 1009,2 hPa 0,0 l/m 0 min 0 min 76 W/m 19,3 km/h (3 Bft) 97,87 %
15.08.2019 08:04 16,3 C 15,6 C 15,0 C 96 % 1009,2 hPa 0,0 l/m 0 min 0 min 71 W/m 25,7 km/h (4 Bft) 97,87 %
15.08.2019 08:06 16,3 C 15,6 C 15,0 C 96 % 1009,2 hPa 0,0 l/m 0 min 0 min 74 W/m 16,1 km/h (3 Bft) 97,87 %
15.08.2019 08:08 16,4 C 15,6 C 15,0 C 96 % 1009,2 hPa 0,0 l/m 0 min 0 min 81 W/m 12,9 km/h (3 Bft) 95,65 %
15.08.2019 08:10 16,4 C 15,6 C 15,0 C 96 % 1009,3 hPa 0,0 l/m 0 min 0 min 101 W/m 9,7 km/h (2 Bft) 97,87 %
15.08.2019 08:12 16,4 C 15,6 C 15,0 C 96 % 1009,2 hPa 0,0 l/m 0 min 0 min 110 W/m 19,3 km/h (3 Bft) 97,87 %
15.08.2019 08:14 16,4 C 15,6 C 15,0 C 96 % 1009,2 hPa 0,0 l/m 0 min 0 min 108 W/m 22,5 km/h (4 Bft) 100,00 %
15.08.2019 08:16 16,4 C 16,1 C 15,0 C 96 % 1009,2 hPa 0,0 l/m 0 min 0 min 114 W/m 19,3 km/h (3 Bft) 97,87 %
15.08.2019 08:18 16,5 C 16,1 C 15,0 C 96 % 1009,2 hPa 0,0 l/m 0 min 0 min 110 W/m 22,5 km/h (4 Bft) 97,87 %
15.08.2019 08:20 16,5 C 16,1 C 15,0 C 96 % 1009,2 hPa 0,0 l/m 0 min 0 min 111 W/m 16,1 km/h (3 Bft) 95,65 %
15.08.2019 08:22 16,5 C 16,1 C 15,0 C 96 % 1009,2 hPa 0,0 l/m 0 min 0 min 103 W/m 19,3 km/h (3 Bft) 95,74 %
15.08.2019 08:24 16,6 C 16,1 C 15,0 C 96 % 1009,2 hPa 0,0 l/m 0 min 0 min 94 W/m 29,0 km/h (5 Bft) 95,74 %
15.08.2019 08:26 16,6 C 16,7 C 15,0 C 96 % 1009,2 hPa 0,0 l/m 0 min 0 min 96 W/m 12,9 km/h (3 Bft) 93,62 %
15.08.2019 08:28 16,6 C 16,7 C 15,6 C 96 % 1009,3 hPa 0,0 l/m 0 min 0 min 100 W/m 25,7 km/h (4 Bft) 95,74 %
15.08.2019 08:30 16,6 C 16,7 C 15,6 C 96 % 1009,2 hPa 0,0 l/m 0 min 0 min 89 W/m 29,0 km/h (5 Bft) 95,65 %
15.08.2019 08:32 16,7 C 16,7 C 15,6 C 96 % 1009,2 hPa 0,0 l/m 0 min 0 min 92 W/m 16,1 km/h (3 Bft) 95,74 %
15.08.2019 08:34 16,7 C 16,7 C 15,6 C 96 % 1009,2 hPa 0,0 l/m 0 min 0 min 103 W/m 16,1 km/h (3 Bft) 91,49 %
15.08.2019 08:36 16,7 C 16,7 C 15,6 C 96 % 1009,3 hPa 0,0 l/m 0 min 0 min 108 W/m 16,1 km/h (3 Bft) 95,74 %
15.08.2019 08:38 16,7 C 16,7 C 15,6 C 96 % 1009,2 hPa 0,0 l/m 0 min 0 min 119 W/m 9,7 km/h (2 Bft) 97,87 %
15.08.2019 08:40 16,8 C 16,7 C 15,6 C 96 % 1009,2 hPa 0,0 l/m 0 min 0 min 111 W/m 16,1 km/h (3 Bft) 95,74 %
15.08.2019 08:42 16,8 C 17,2 C 15,6 C 96 % 1009,2 hPa 0,0 l/m 0 min 0 min 125 W/m 22,5 km/h (4 Bft) 93,48 %
15.08.2019 08:44 16,8 C 17,2 C 15,6 C 96 % 1009,3 hPa 0,0 l/m 0 min 0 min 130 W/m 16,1 km/h (3 Bft) 93,62 %
15.08.2019 08:46 16,9 C 17,2 C 16,1 C 96 % 1009,2 hPa 0,0 l/m 0 min 0 min 147 W/m 16,1 km/h (3 Bft) 97,87 %
15.08.2019 08:48 16,9 C 17,2 C 16,1 C 96 % 1009,2 hPa 0,0 l/m 0 min 0 min 170 W/m 22,5 km/h (4 Bft) 97,87 %
15.08.2019 08:50 16,9 C 17,2 C 16,7 C 96 % 1009,2 hPa 0,0 l/m 0 min 0 min 137 W/m 19,3 km/h (3 Bft) 97,87 %
15.08.2019 08:52 17,0 C 17,2 C 16,7 C 96 % 1009,2 hPa 0,0 l/m 0 min 0 min 111 W/m 16,1 km/h (3 Bft) 97,87 %
15.08.2019 08:54 17,0 C 17,2 C 16,7 C 95 % 1009,1 hPa 0,0 l/m 0 min 0 min 91 W/m 12,9 km/h (3 Bft) 100,00 %
15.08.2019 08:56 17,1 C 17,2 C 16,7 C 95 % 1009,1 hPa 0,0 l/m 0 min 0 min 88 W/m 16,1 km/h (3 Bft) 97,87 %
15.08.2019 08:58 17,1 C 17,2 C 16,7 C 95 % 1009,2 hPa 0,0 l/m 0 min 0 min 97 W/m 12,9 km/h (3 Bft) 97,87 %
15.08.2019 09:00 17,1 C 17,2 C 16,7 C 95 % 1009,2 hPa 0,0 l/m 0 min 0 min 107 W/m 16,1 km/h (3 Bft) 95,74 %
15.08.2019 09:02 17,1 C 17,2 C 16,7 C 95 % 1009,1 hPa 0,0 l/m 0 min 0 min 110 W/m 12,9 km/h (3 Bft) 100,00 %
15.08.2019 09:04 17,2 C 17,8 C 16,7 C 95 % 1009,0 hPa 0,0 l/m 0 min 0 min 149 W/m 22,5 km/h (4 Bft) 100,00 %
15.08.2019 09:06 17,2 C 17,8 C 16,7 C 95 % 1009,1 hPa 0,0 l/m 0 min 0 min 151 W/m 19,3 km/h (3 Bft) 100,00 %
15.08.2019 09:08 17,2 C 17,8 C 16,7 C 95 % 1009,1 hPa 0,0 l/m 0 min 0 min 152 W/m 16,1 km/h (3 Bft) 100,00 %
15.08.2019 09:10 17,2 C 17,8 C 16,7 C 95 % 1009,2 hPa 0,0 l/m 0 min 0 min 160 W/m 12,9 km/h (3 Bft) 97,87 %
15.08.2019 09:12 17,3 C 17,8 C 16,7 C 95 % 1009,2 hPa 0,0 l/m 0 min 0 min 138 W/m 25,7 km/h (4 Bft) 97,87 %
15.08.2019 09:14 17,3 C 17,8 C 16,7 C 95 % 1009,2 hPa 0,0 l/m 0 min 0 min 148 W/m 25,7 km/h (4 Bft) 97,92 %
15.08.2019 09:16 17,3 C 17,8 C 17,2 C 94 % 1009,1 hPa 0,0 l/m 0 min 0 min 151 W/m 22,5 km/h (4 Bft) 97,87 %
15.08.2019 09:18 17,4 C 17,8 C 17,2 C 94 % 1009,1 hPa 0,0 l/m 0 min 0 min 155 W/m 19,3 km/h (3 Bft) 95,65 %
15.08.2019 09:20 17,4 C 17,8 C 17,2 C 94 % 1009,1 hPa 0,0 l/m 0 min 0 min 145 W/m 16,1 km/h (3 Bft) 95,74 %
15.08.2019 09:22 17,4 C 17,8 C 17,2 C 94 % 1009,0 hPa 0,0 l/m 0 min 0 min 130 W/m 12,9 km/h (3 Bft) 97,87 %
15.08.2019 09:24 17,4 C 17,8 C 17,2 C 94 % 1009,1 hPa 0,0 l/m 0 min 0 min 139 W/m 25,7 km/h (4 Bft) 97,87 %
15.08.2019 09:26 17,5 C 17,8 C 17,2 C 94 % 1009,1 hPa 0,0 l/m 0 min 0 min 145 W/m 22,5 km/h (4 Bft) 97,87 %
15.08.2019 09:28 17,5 C 17,8 C 17,2 C 94 % 1009,1 hPa 0,0 l/m 0 min 0 min 138 W/m 25,7 km/h (4 Bft) 97,83 %
15.08.2019 09:30 17,6 C 18,3 C 17,2 C 93 % 1009,1 hPa 0,0 l/m 0 min 0 min 141 W/m 29,0 km/h (5 Bft) 97,87 %
15.08.2019 09:32 17,6 C 18,9 C 17,8 C 93 % 1009,1 hPa 0,0 l/m 0 min 0 min 185 W/m 19,3 km/h (3 Bft) 97,87 %
15.08.2019 09:34 17,6 C 18,9 C 18,3 C 93 % 1009,0 hPa 0,0 l/m 2 min 0 min 290 W/m 25,7 km/h (4 Bft) 95,74 %
15.08.2019 09:36 17,7 C 18,9 C 18,3 C 93 % 1009,0 hPa 0,0 l/m 2 min 0 min 245 W/m 19,3 km/h (3 Bft) 97,87 %
15.08.2019 09:38 17,7 C 18,9 C 18,3 C 93 % 1009,0 hPa 0,0 l/m 0 min 0 min 220 W/m 19,3 km/h (3 Bft) 95,74 %
15.08.2019 09:40 17,8 C 18,9 C 18,3 C 93 % 1009,0 hPa 0,0 l/m 0 min 0 min 218 W/m 29,0 km/h (5 Bft) 97,83 %
15.08.2019 09:42 17,8 C 18,9 C 18,3 C 92 % 1009,0 hPa 0,0 l/m 0 min 0 min 202 W/m 19,3 km/h (3 Bft) 97,87 %
15.08.2019 09:44 17,9 C 18,9 C 18,3 C 92 % 1009,1 hPa 0,0 l/m 0 min 0 min 204 W/m 29,0 km/h (5 Bft) 97,87 %
15.08.2019 09:46 17,9 C 19,4 C 18,9 C 92 % 1009,0 hPa 0,0 l/m 0 min 0 min 245 W/m 32,2 km/h (5 Bft) 97,87 %
15.08.2019 09:48 18,0 C 20,0 C 19,4 C 92 % 1009,0 hPa 0,0 l/m 2 min 0 min 290 W/m 25,7 km/h (4 Bft) 97,87 %
15.08.2019 09:50 18,1 C 20,6 C 20,0 C 92 % 1009,0 hPa 0,0 l/m 2 min 0 min 259 W/m 16,1 km/h (3 Bft) 97,87 %
15.08.2019 09:52 18,2 C 20,0 C 19,4 C 91 % 1009,0 hPa 0,0 l/m 2 min 0 min 284 W/m 25,7 km/h (4 Bft) 97,83 %
15.08.2019 09:54 18,2 C 20,0 C 19,4 C 91 % 1009,0 hPa 0,0 l/m 2 min 0 min 257 W/m 12,9 km/h (3 Bft) 97,87 %
15.08.2019 09:56 18,3 C 20,0 C 18,9 C 91 % 1009,0 hPa 0,0 l/m 0 min 0 min 248 W/m 12,9 km/h (3 Bft) 97,87 %
15.08.2019 09:58 18,4 C 20,6 C 19,4 C 91 % 1009,1 hPa 0,0 l/m 2 min 0 min 282 W/m 19,3 km/h (3 Bft) 95,74 %
15.08.2019 10:00 18,5 C 20,6 C 19,4 C 90 % 1009,1 hPa 0,0 l/m 2 min 0 min 295 W/m 25,7 km/h (4 Bft) 97,87 %
15.08.2019 10:02 18,6 C 20,6 C 19,4 C 90 % 1009,1 hPa 0,0 l/m 2 min 0 min 332 W/m 16,1 km/h (3 Bft) 97,87 %
15.08.2019 10:04 18,7 C 21,1 C 20,0 C 90 % 1009,1 hPa 0,0 l/m 2 min 0 min 332 W/m 12,9 km/h (3 Bft) 100,00 %
15.08.2019 10:06 18,7 C 21,1 C 20,0 C 90 % 1009,0 hPa 0,0 l/m 2 min 0 min 333 W/m 22,5 km/h (4 Bft) 100,00 %
15.08.2019 10:08 18,8 C 20,6 C 19,4 C 89 % 1009,1 hPa 0,0 l/m 2 min 0 min 272 W/m 19,3 km/h (3 Bft) 100,00 %
15.08.2019 10:10 18,9 C 20,0 C 19,4 C 89 % 1009,1 hPa 0,0 l/m 0 min 0 min 269 W/m 22,5 km/h (4 Bft) 100,00 %
15.08.2019 10:12 18,9 C 20,0 C 18,9 C 88 % 1009,1 hPa 0,0 l/m 0 min 0 min 267 W/m 22,5 km/h (4 Bft) 100,00 %
15.08.2019 10:14 18,9 C 19,4 C 18,9 C 88 % 1009,1 hPa 0,0 l/m 0 min 0 min 205 W/m 22,5 km/h (4 Bft) 100,00 %
15.08.2019 10:16 19,0 C 19,4 C 18,9 C 87 % 1009,1 hPa 0,0 l/m 0 min 0 min 191 W/m 22,5 km/h (4 Bft) 97,87 %
15.08.2019 10:18 18,9 C 18,9 C 18,3 C 87 % 1009,1 hPa 0,0 l/m 0 min 0 min 145 W/m 22,5 km/h (4 Bft) 97,87 %
15.08.2019 10:20 18,9 C 18,9 C 18,3 C 87 % 1009,1 hPa 0,0 l/m 0 min 0 min 166 W/m 25,7 km/h (4 Bft) 100,00 %
15.08.2019 10:22 18,9 C 18,9 C 18,3 C 86 % 1009,1 hPa 0,0 l/m 0 min 0 min 146 W/m 22,5 km/h (4 Bft) 100,00 %
15.08.2019 10:24 18,9 C 18,9 C 17,8 C 86 % 1009,2 hPa 0,0 l/m 0 min 0 min 122 W/m 29,0 km/h (5 Bft) 100,00 %
15.08.2019 10:26 18,9 C 18,3 C 17,8 C 86 % 1009,1 hPa 0,0 l/m 0 min 0 min 119 W/m 19,3 km/h (3 Bft) 100,00 %
15.08.2019 10:28 18,9 C 18,9 C 17,8 C 87 % 1009,2 hPa 0,0 l/m 0 min 0 min 140 W/m 12,9 km/h (3 Bft) 97,87 %
15.08.2019 10:30 18,9 C 18,9 C 18,3 C 87 % 1009,1 hPa 0,0 l/m 0 min 0 min 200 W/m 16,1 km/h (3 Bft) 100,00 %
15.08.2019 10:32 18,9 C 19,4 C 18,3 C 87 % 1009,2 hPa 0,0 l/m 0 min 0 min 212 W/m 9,7 km/h (2 Bft) 100,00 %
15.08.2019 10:34 18,9 C 19,4 C 18,9 C 87 % 1009,1 hPa 0,0 l/m 0 min 0 min 209 W/m 16,1 km/h (3 Bft) 100,00 %
15.08.2019 10:36 18,9 C 19,4 C 18,9 C 87 % 1009,1 hPa 0,0 l/m 0 min 0 min 188 W/m 12,9 km/h (3 Bft) 100,00 %
15.08.2019 10:38 18,9 C 19,4 C 18,9 C 87 % 1009,2 hPa 0,0 l/m 0 min 0 min 215 W/m 25,7 km/h (4 Bft) 100,00 %
15.08.2019 10:40 18,9 C 19,4 C 18,9 C 87 % 1009,2 hPa 0,0 l/m 0 min 0 min 252 W/m 32,2 km/h (5 Bft) 100,00 %
15.08.2019 10:42 18,9 C 20,0 C 19,4 C 86 % 1009,2 hPa 0,0 l/m 2 min 0 min 315 W/m 22,5 km/h (4 Bft) 100,00 %
15.08.2019 10:44 19,0 C 21,1 C 20,0 C 87 % 1009,2 hPa 0,0 l/m 2 min 0 min 397 W/m 19,3 km/h (3 Bft) 100,00 %
15.08.2019 10:46 19,1 C 21,7 C 20,6 C 86 % 1009,2 hPa 0,0 l/m 2 min 0 min 514 W/m 19,3 km/h (3 Bft) 100,00 %
15.08.2019 10:48 19,2 C 21,1 C 20,6 C 86 % 1009,1 hPa 0,0 l/m 2 min 0 min 467 W/m 25,7 km/h (4 Bft) 100,00 %
15.08.2019 10:50 19,3 C 21,1 C 20,6 C 86 % 1009,1 hPa 0,0 l/m 0 min 0 min 306 W/m 22,5 km/h (4 Bft) 97,83 %
15.08.2019 10:52 19,3 C 21,1 C 20,6 C 86 % 1009,1 hPa 0,0 l/m 2 min 0 min 336 W/m 22,5 km/h (4 Bft) 95,74 %
15.08.2019 10:54 19,4 C 21,1 C 20,6 C 86 % 1009,2 hPa 0,0 l/m 2 min 0 min 373 W/m 22,5 km/h (4 Bft) 95,74 %
15.08.2019 10:56 19,5 C 21,1 C 20,6 C 85 % 1009,2 hPa 0,0 l/m 2 min 0 min 343 W/m 16,1 km/h (3 Bft) 97,87 %
15.08.2019 10:58 19,6 C 21,1 C 20,0 C 85 % 1009,2 hPa 0,0 l/m 0 min 0 min 308 W/m 19,3 km/h (3 Bft) 97,87 %
15.08.2019 11:00 19,6 C 21,1 C 20,0 C 85 % 1009,1 hPa 0,0 l/m 0 min 0 min 279 W/m 12,9 km/h (3 Bft) 97,87 %
15.08.2019 11:02 19,7 C 21,1 C 20,0 C 85 % 1009,1 hPa 0,0 l/m 0 min 0 min 319 W/m 19,3 km/h (3 Bft) 93,48 %
15.08.2019 11:04 19,7 C 21,1 C 20,0 C 84 % 1009,1 hPa 0,0 l/m 2 min 0 min 373 W/m 22,5 km/h (4 Bft) 95,74 %
15.08.2019 11:06 19,8 C 21,7 C 20,6 C 84 % 1009,1 hPa 0,0 l/m 2 min 0 min 385 W/m 9,7 km/h (2 Bft) 95,74 %
15.08.2019 11:08 19,8 C 22,2 C 20,6 C 84 % 1009,0 hPa 0,0 l/m 2 min 0 min 432 W/m 22,5 km/h (4 Bft) 95,74 %
15.08.2019 11:10 19,9 C 21,7 C 20,6 C 83 % 1009,0 hPa 0,0 l/m 2 min 0 min 405 W/m 22,5 km/h (4 Bft) 95,74 %
15.08.2019 11:12 19,9 C 21,7 C 20,6 C 83 % 1009,0 hPa 0,0 l/m 2 min 0 min 435 W/m 22,5 km/h (4 Bft) 95,74 %
15.08.2019 11:14 20,0 C 21,7 C 20,6 C 83 % 1009,0 hPa 0,0 l/m 2 min 0 min 436 W/m 25,7 km/h (4 Bft) 95,65 %
15.08.2019 11:16 20,0 C 21,1 C 20,6 C 83 % 1009,0 hPa 0,0 l/m 0 min 0 min 313 W/m 16,1 km/h (3 Bft) 95,74 %
15.08.2019 11:18 20,1 C 21,1 C 20,0 C 83 % 1009,0 hPa 0,0 l/m 0 min 0 min 286 W/m 16,1 km/h (3 Bft) 95,74 %
15.08.2019 11:20 20,1 C 21,1 C 20,0 C 82 % 1009,1 hPa 0,0 l/m 0 min 0 min 292 W/m 19,3 km/h (3 Bft) 93,62 %
15.08.2019 11:22 20,1 C 20,6 C 20,0 C 83 % 1009,0 hPa 0,0 l/m 0 min 0 min 245 W/m 16,1 km/h (3 Bft) 95,74 %
15.08.2019 11:24 20,1 C 20,6 C 20,0 C 82 % 1009,0 hPa 0,0 l/m 0 min 0 min 249 W/m 16,1 km/h (3 Bft) 95,74 %
15.08.2019 11:26 20,1 C 20,6 C 20,0 C 82 % 1009,0 hPa 0,0 l/m 0 min 0 min 252 W/m 16,1 km/h (3 Bft) 95,65 %
15.08.2019 11:28 20,1 C 20,6 C 20,0 C 82 % 1009,1 hPa 0,0 l/m 0 min 0 min 246 W/m 22,5 km/h (4 Bft) 95,74 %
15.08.2019 11:30 20,1 C 20,6 C 19,4 C 82 % 1009,0 hPa 0,0 l/m 0 min 0 min 271 W/m 29,0 km/h (5 Bft) 95,74 %
15.08.2019 11:32 20,1 C 20,6 C 20,0 C 82 % 1009,0 hPa 0,0 l/m 0 min 0 min 255 W/m 16,1 km/h (3 Bft) 97,87 %
15.08.2019 11:34 20,1 C 20,6 C 20,0 C 82 % 1009,1 hPa 0,0 l/m 0 min 0 min 254 W/m 19,3 km/h (3 Bft) 97,87 %
15.08.2019 11:36 20,1 C 20,6 C 20,0 C 82 % 1009,0 hPa 0,0 l/m 0 min 0 min 218 W/m 12,9 km/h (3 Bft) 97,87 %
15.08.2019 11:38 20,1 C 20,6 C 20,0 C 83 % 1009,0 hPa 0,0 l/m 0 min 0 min 215 W/m 16,1 km/h (3 Bft) 97,83 %
15.08.2019 11:40 20,2 C 20,6 C 20,0 C 82 % 1009,1 hPa 0,0 l/m 0 min 0 min 193 W/m 16,1 km/h (3 Bft) 93,62 %
15.08.2019 11:42 20,2 C 20,6 C 20,0 C 82 % 1009,0 hPa 0,0 l/m 0 min 0 min 181 W/m 9,7 km/h (2 Bft) 97,87 %
15.08.2019 11:44 20,2 C 20,0 C 18,9 C 82 % 1009,1 hPa 0,0 l/m 0 min 2 min 164 W/m 9,7 km/h (2 Bft) 97,87 %
15.08.2019 11:46 20,2 C 19,4 C 18,3 C 83 % 1009,1 hPa 0,0 l/m 0 min 0 min 175 W/m 12,9 km/h (3 Bft) 97,87 %
15.08.2019 11:48 20,1 C 19,4 C 18,3 C 83 % 1009,1 hPa 0,0 l/m 0 min 0 min 167 W/m 16,1 km/h (3 Bft) 95,65 %
15.08.2019 11:50 20,1 C 18,9 C 17,8 C 83 % 1009,1 hPa 0,0 l/m 0 min 2 min 189 W/m 22,5 km/h (4 Bft) 97,87 %
15.08.2019 11:52 20,0 C 18,3 C 17,8 C 84 % 1009,1 hPa 0,0 l/m 0 min 2 min 231 W/m 19,3 km/h (3 Bft) 95,74 %
15.08.2019 11:54 19,9 C 18,9 C 17,8 C 84 % 1009,2 hPa 0,0 l/m 0 min 2 min 247 W/m 9,7 km/h (2 Bft) 97,87 %
15.08.2019 11:56 19,9 C 19,4 C 18,3 C 84 % 1009,1 hPa 0,0 l/m 0 min 2 min 228 W/m 16,1 km/h (3 Bft) 97,87 %
15.08.2019 11:58 19,8 C 19,4 C 18,9 C 84 % 1009,2 hPa 0,0 l/m 0 min 2 min 270 W/m 19,3 km/h (3 Bft) 95,74 %
15.08.2019 12:00 19,8 C 20,6 C 19,4 C 84 % 1009,2 hPa 0,0 l/m 0 min 2 min 308 W/m 12,9 km/h (3 Bft) 97,83 %
15.08.2019 12:02 19,8 C 20,6 C 20,0 C 84 % 1009,1 hPa 0,0 l/m 0 min 0 min 310 W/m 19,3 km/h (3 Bft) 97,87 %
15.08.2019 12:04 19,8 C 20,6 C 20,0 C 84 % 1009,2 hPa 0,0 l/m 0 min 0 min 251 W/m 22,5 km/h (4 Bft) 95,74 %
15.08.2019 12:08 19,9 C 20,6 C 20,0 C 84 % 1009,2 hPa 0,0 l/m 0 min 0 min 269 W/m 32,2 km/h (5 Bft) 97,87 %
15.08.2019 12:10 19,9 C 21,1 C 20,0 C 84 % 1009,3 hPa 0,0 l/m 2 min 0 min 462 W/m 29,0 km/h (5 Bft) 97,87 %
15.08.2019 12:12 19,9 C 22,2 C 20,6 C 84 % 1009,3 hPa 0,0 l/m 2 min 0 min 537 W/m 29,0 km/h (5 Bft) 95,65 %
15.08.2019 12:14 20,0 C 22,2 C 20,6 C 85 % 1009,3 hPa 0,0 l/m 2 min 0 min 485 W/m 29,0 km/h (5 Bft) 97,87 %
15.08.2019 12:16 20,1 C 21,7 C 20,6 C 85 % 1009,2 hPa 0,0 l/m 2 min 0 min 409 W/m 19,3 km/h (3 Bft) 97,87 %
15.08.2019 12:18 20,1 C 22,2 C 20,6 C 85 % 1009,3 hPa 0,0 l/m 2 min 0 min 408 W/m 19,3 km/h (3 Bft) 97,87 %
15.08.2019 12:20 20,2 C 22,2 C 21,1 C 85 % 1009,3 hPa 0,0 l/m 2 min 0 min 441 W/m 22,5 km/h (4 Bft) 97,87 %
15.08.2019 12:22 20,2 C 23,3 C 21,1 C 85 % 1009,3 hPa 0,0 l/m 2 min 0 min 518 W/m 12,9 km/h (3 Bft) 97,87 %
15.08.2019 12:24 20,3 C 25,0 C 21,7 C 85 % 1009,2 hPa 0,0 l/m 2 min 0 min 557 W/m 19,3 km/h (3 Bft) 95,65 %
15.08.2019 12:26 20,4 C 25,6 C 21,7 C 85 % 1009,2 hPa 0,0 l/m 2 min 0 min 723 W/m 35,4 km/h (5 Bft) 95,74 %
15.08.2019 12:28 20,6 C 24,4 C 21,7 C 85 % 1009,2 hPa 0,0 l/m 2 min 0 min 1013 W/m 25,7 km/h (4 Bft) 97,87 %
15.08.2019 12:30 20,7 C 23,9 C 21,7 C 84 % 1009,2 hPa 0,0 l/m 2 min 0 min 533 W/m 25,7 km/h (4 Bft) 97,87 %
15.08.2019 12:32 20,8 C 24,4 C 22,2 C 84 % 1009,1 hPa 0,0 l/m 2 min 0 min 529 W/m 25,7 km/h (4 Bft) 97,87 %
15.08.2019 12:34 20,9 C 23,9 C 21,7 C 83 % 1009,2 hPa 0,0 l/m 2 min 0 min 610 W/m 25,7 km/h (4 Bft) 97,87 %
15.08.2019 12:36 20,9 C 23,3 C 21,7 C 83 % 1009,1 hPa 0,0 l/m 2 min 0 min 515 W/m 32,2 km/h (5 Bft) 97,83 %
15.08.2019 12:38 21,0 C 23,3 C 21,7 C 82 % 1009,2 hPa 0,0 l/m 2 min 0 min 447 W/m 22,5 km/h (4 Bft) 97,87 %
15.08.2019 12:40 21,1 C 23,9 C 22,2 C 82 % 1009,1 hPa 0,0 l/m 2 min 0 min 518 W/m 12,9 km/h (3 Bft) 97,87 %
15.08.2019 12:42 21,1 C 23,9 C 22,2 C 82 % 1009,2 hPa 0,0 l/m 2 min 0 min 466 W/m 19,3 km/h (3 Bft) 97,87 %
15.08.2019 12:44 21,2 C 23,3 C 21,7 C 81 % 1009,2 hPa 0,0 l/m 2 min 0 min 388 W/m 16,1 km/h (3 Bft) 97,87 %
15.08.2019 12:46 21,2 C 22,8 C 21,7 C 81 % 1009,2 hPa 0,0 l/m 0 min 0 min 256 W/m 16,1 km/h (3 Bft) 97,83 %
15.08.2019 12:48 21,3 C 22,2 C 21,1 C 81 % 1009,2 hPa 0,0 l/m 0 min 0 min 231 W/m 12,9 km/h (3 Bft) 97,87 %
15.08.2019 12:50 21,3 C 21,7 C 21,1 C 81 % 1009,1 hPa 0,0 l/m 0 min 0 min 201 W/m 16,1 km/h (3 Bft) 95,74 %
15.08.2019 12:52 21,3 C 20,6 C 20,6 C 81 % 1009,2 hPa 0,0 l/m 0 min 0 min 113 W/m 25,7 km/h (4 Bft) 97,87 %
15.08.2019 12:54 21,2 C 17,8 C 17,8 C 81 % 1009,4 hPa 0,0 l/m 0 min 2 min 58 W/m 22,5 km/h (4 Bft) 97,87 %
15.08.2019 12:56 21,2 C 17,2 C 17,2 C 82 % 1009,4 hPa 0,0 l/m 0 min 2 min 87 W/m 22,5 km/h (4 Bft) 97,87 %
15.08.2019 12:58 21,0 C 16,7 C 16,7 C 82 % 1009,6 hPa 0,0 l/m 0 min 2 min 87 W/m 22,5 km/h (4 Bft) 95,65 %
15.08.2019 13:00 20,7 C 16,7 C 16,7 C 83 % 1009,7 hPa 0,2 l/m 0 min 2 min 88 W/m 22,5 km/h (4 Bft) 97,87 %
15.08.2019 13:02 20,6 C 16,7 C 16,7 C 84 % 1009,7 hPa 0,0 l/m 0 min 2 min 159 W/m 16,1 km/h (3 Bft) 100,00 %
15.08.2019 13:04 20,4 C 17,2 C 17,2 C 85 % 1009,7 hPa 0,0 l/m 0 min 2 min 236 W/m 16,1 km/h (3 Bft) 100,00 %
15.08.2019 13:06 20,2 C 17,2 C 17,2 C 86 % 1009,7 hPa 0,0 l/m 0 min 2 min 249 W/m 22,5 km/h (4 Bft) 97,87 %
15.08.2019 13:08 20,1 C 17,8 C 17,2 C 87 % 1009,7 hPa 0,0 l/m 0 min 0 min 230 W/m 12,9 km/h (3 Bft) 97,87 %
15.08.2019 13:10 20,0 C 17,8 C 17,2 C 87 % 1009,7 hPa 0,0 l/m 0 min 0 min 192 W/m 9,7 km/h (2 Bft) 100,00 %
15.08.2019 13:12 19,9 C 17,8 C 17,2 C 88 % 1009,7 hPa 0,0 l/m 0 min 0 min 176 W/m 12,9 km/h (3 Bft) 97,87 %
15.08.2019 13:14 19,9 C 17,8 C 17,2 C 88 % 1009,8 hPa 0,0 l/m 0 min 0 min 149 W/m 16,1 km/h (3 Bft) 100,00 %
15.08.2019 13:16 19,8 C 17,8 C 17,2 C 88 % 1009,8 hPa 0,0 l/m 0 min 0 min 158 W/m 9,7 km/h (2 Bft) 100,00 %
15.08.2019 13:18 19,7 C 17,8 C 17,2 C 87 % 1009,8 hPa 0,0 l/m 0 min 0 min 181 W/m 16,1 km/h (3 Bft) 100,00 %
15.08.2019 13:20 19,7 C 18,3 C 17,2 C 88 % 1009,8 hPa 0,0 l/m 0 min 0 min 196 W/m 9,7 km/h (2 Bft) 97,87 %
15.08.2019 13:22 19,6 C 18,3 C 17,8 C 88 % 1009,8 hPa 0,0 l/m 0 min 0 min 224 W/m 6,4 km/h (2 Bft) 95,65 %
15.08.2019 13:24 19,6 C 17,8 C 17,8 C 89 % 1009,7 hPa 0,0 l/m 0 min 0 min 168 W/m 9,7 km/h (2 Bft) 97,87 %
15.08.2019 13:26 19,6 C 17,8 C 17,2 C 89 % 1009,8 hPa 0,0 l/m 0 min 2 min 78 W/m 16,1 km/h (3 Bft) 95,74 %
15.08.2019 13:28 19,5 C 17,2 C 16,7 C 89 % 1010,1 hPa 0,0 l/m 0 min 2 min 49 W/m 16,1 km/h (3 Bft) 95,74 %
15.08.2019 13:30 19,4 C 17,2 C 16,7 C 88 % 1010,1 hPa 0,0 l/m 0 min 2 min 66 W/m 16,1 km/h (3 Bft) 97,87 %
15.08.2019 13:32 19,3 C 16,7 C 16,7 C 88 % 1010,1 hPa 0,0 l/m 0 min 2 min 44 W/m 22,5 km/h (4 Bft) 95,74 %
15.08.2019 13:34 19,3 C 16,1 C 16,1 C 88 % 1010,0 hPa 0,2 l/m 0 min 2 min 42 W/m 32,2 km/h (5 Bft) 95,65 %
15.08.2019 13:36 19,1 C 16,1 C 16,1 C 89 % 1010,3 hPa 0,0 l/m 0 min 2 min 52 W/m 29,0 km/h (5 Bft) 97,87 %
15.08.2019 13:38 19,0 C 16,1 C 16,1 C 89 % 1010,3 hPa 0,0 l/m 0 min 2 min 76 W/m 16,1 km/h (3 Bft) 95,74 %
15.08.2019 13:40 18,9 C 16,1 C 16,1 C 89 % 1010,3 hPa 0,2 l/m 0 min 2 min 96 W/m 16,1 km/h (3 Bft) 97,87 %
15.08.2019 13:42 18,7 C 16,1 C 16,1 C 90 % 1010,4 hPa 0,2 l/m 0 min 2 min 104 W/m 16,1 km/h (3 Bft) 95,74 %
15.08.2019 13:44 18,6 C 15,6 C 16,1 C 89 % 1010,4 hPa 0,2 l/m 0 min 2 min 118 W/m 22,5 km/h (4 Bft) 97,87 %
15.08.2019 13:46 18,4 C 16,1 C 15,6 C 89 % 1010,4 hPa 0,0 l/m 0 min 2 min 161 W/m 19,3 km/h (3 Bft) 97,83 %
15.08.2019 13:48 18,3 C 16,1 C 16,1 C 90 % 1010,3 hPa 0,0 l/m 0 min 0 min 233 W/m 16,1 km/h (3 Bft) 97,87 %
15.08.2019 13:50 18,3 C 16,7 C 16,1 C 90 % 1010,3 hPa 0,0 l/m 0 min 0 min 268 W/m 9,7 km/h (2 Bft) 97,87 %
15.08.2019 13:52 18,2 C 16,7 C 16,7 C 91 % 1010,3 hPa 0,0 l/m 0 min 0 min 267 W/m 16,1 km/h (3 Bft) 97,87 %
15.08.2019 13:54 18,2 C 17,2 C 16,7 C 91 % 1010,3 hPa 0,0 l/m 0 min 0 min 288 W/m 12,9 km/h (3 Bft) 95,74 %
15.08.2019 13:56 18,2 C 17,8 C 17,2 C 91 % 1010,3 hPa 0,0 l/m 0 min 0 min 378 W/m 12,9 km/h (3 Bft) 97,83 %
15.08.2019 13:58 18,2 C 18,3 C 17,8 C 92 % 1010,2 hPa 0,0 l/m 2 min 0 min 487 W/m 12,9 km/h (3 Bft) 97,87 %
15.08.2019 14:00 18,3 C 18,9 C 17,8 C 92 % 1010,2 hPa 0,0 l/m 2 min 0 min 473 W/m 16,1 km/h (3 Bft) 97,87 %
15.08.2019 14:02 18,3 C 18,3 C 17,8 C 92 % 1010,2 hPa 0,0 l/m 2 min 0 min 412 W/m 16,1 km/h (3 Bft) 97,87 %
15.08.2019 14:04 18,3 C 18,3 C 17,2 C 92 % 1010,3 hPa 0,0 l/m 0 min 0 min 318 W/m 16,1 km/h (3 Bft) 97,87 %
15.08.2019 14:06 18,3 C 18,3 C 17,2 C 92 % 1010,2 hPa 0,0 l/m 0 min 0 min 283 W/m 12,9 km/h (3 Bft) 97,87 %
15.08.2019 14:08 18,4 C 18,3 C 17,2 C 92 % 1010,2 hPa 0,0 l/m 0 min 0 min 306 W/m 9,7 km/h (2 Bft) 97,83 %
15.08.2019 14:10 18,4 C 18,3 C 17,8 C 92 % 1010,1 hPa 0,0 l/m 0 min 0 min 301 W/m 16,1 km/h (3 Bft) 100,00 %
15.08.2019 14:12 18,5 C 17,8 C 17,2 C 93 % 1010,2 hPa 0,0 l/m 0 min 0 min 267 W/m 25,7 km/h (4 Bft) 100,00 %
15.08.2019 14:14 18,5 C 18,3 C 17,2 C 92 % 1010,1 hPa 0,0 l/m 0 min 0 min 261 W/m 16,1 km/h (3 Bft) 100,00 %
15.08.2019 14:16 18,5 C 18,3 C 17,2 C 92 % 1010,1 hPa 0,2 l/m 0 min 0 min 278 W/m 16,1 km/h (3 Bft) 100,00 %
15.08.2019 14:18 18,6 C 18,3 C 17,8 C 92 % 1010,3 hPa 0,0 l/m 0 min 0 min 260 W/m 9,7 km/h (2 Bft) 100,00 %
15.08.2019 14:20 18,6 C 18,3 C 17,2 C 92 % 1010,3 hPa 0,0 l/m 0 min 0 min 246 W/m 19,3 km/h (3 Bft) 97,83 %
15.08.2019 14:22 18,6 C 18,3 C 17,2 C 92 % 1010,3 hPa 0,0 l/m 0 min 0 min 259 W/m 9,7 km/h (2 Bft) 100,00 %
15.08.2019 14:24 18,7 C 18,3 C 17,8 C 92 % 1010,1 hPa 0,0 l/m 0 min 0 min 258 W/m 12,9 km/h (3 Bft) 97,87 %
15.08.2019 14:26 18,7 C 18,3 C 17,8 C 92 % 1010,1 hPa 0,0 l/m 0 min 0 min 261 W/m 12,9 km/h (3 Bft) 97,87 %
15.08.2019 14:28 18,8 C 18,9 C 17,8 C 92 % 1010,2 hPa 0,0 l/m 0 min 0 min 267 W/m 9,7 km/h (2 Bft) 95,74 %
15.08.2019 14:30 18,8 C 18,9 C 17,8 C 92 % 1010,1 hPa 0,0 l/m 0 min 0 min 302 W/m 16,1 km/h (3 Bft) 97,87 %
15.08.2019 14:32 18,9 C 18,9 C 17,8 C 92 % 1010,3 hPa 0,0 l/m 0 min 0 min 362 W/m 19,3 km/h (3 Bft) 100,00 %
15.08.2019 14:34 18,9 C 19,4 C 17,8 C 92 % 1010,3 hPa 0,0 l/m 2 min 0 min 387 W/m 19,3 km/h (3 Bft) 100,00 %
15.08.2019 14:36 19,0 C 20,0 C 18,3 C 92 % 1010,3 hPa 0,0 l/m 2 min 0 min 415 W/m 12,9 km/h (3 Bft) 97,87 %
15.08.2019 14:38 19,1 C 21,7 C 18,3 C 91 % 1010,3 hPa 0,0 l/m 2 min 0 min 500 W/m 12,9 km/h (3 Bft) 93,62 %
15.08.2019 14:40 19,2 C 22,2 C 18,9 C 92 % 1010,3 hPa 0,0 l/m 2 min 0 min 592 W/m 16,1 km/h (3 Bft) 100,00 %
15.08.2019 14:42 19,4 C 22,8 C 18,9 C 92 % 1010,2 hPa 0,0 l/m 2 min 0 min 674 W/m 16,1 km/h (3 Bft) 95,74 %
15.08.2019 14:44 19,5 C 23,3 C 18,9 C 91 % 1010,4 hPa 0,0 l/m 2 min 0 min 534 W/m 16,1 km/h (3 Bft) 95,65 %
15.08.2019 14:46 19,6 C 23,3 C 18,9 C 91 % 1010,5 hPa 0,0 l/m 2 min 0 min 510 W/m 29,0 km/h (5 Bft) 97,87 %
15.08.2019 14:48 19,7 C 22,2 C 18,3 C 90 % 1010,3 hPa 0,0 l/m 2 min 0 min 440 W/m 12,9 km/h (3 Bft) 97,87 %
15.08.2019 14:50 19,7 C 22,8 C 18,3 C 89 % 1010,3 hPa 0,0 l/m 2 min 0 min 397 W/m 22,5 km/h (4 Bft) 95,74 %
15.08.2019 14:52 19,9 C 24,4 C 18,9 C 88 % 1010,3 hPa 0,0 l/m 2 min 0 min 564 W/m 16,1 km/h (3 Bft) 97,87 %
15.08.2019 14:54 20,1 C 25,0 C 18,9 C 88 % 1010,4 hPa 0,0 l/m 2 min 0 min 953 W/m 16,1 km/h (3 Bft) 97,83 %
15.08.2019 14:56 20,3 C 25,6 C 19,4 C 88 % 1010,4 hPa 0,0 l/m 2 min 0 min 918 W/m 16,1 km/h (3 Bft) 97,87 %
15.08.2019 14:58 20,5 C 26,7 C 19,4 C 86 % 1010,3 hPa 0,0 l/m 2 min 0 min 894 W/m 12,9 km/h (3 Bft) 97,87 %
15.08.2019 15:00 20,7 C 25,6 C 19,4 C 87 % 1010,3 hPa 0,0 l/m 2 min 0 min 915 W/m 22,5 km/h (4 Bft) 95,74 %
15.08.2019 15:02 20,8 C 25,6 C 20,6 C 86 % 1010,3 hPa 0,0 l/m 2 min 0 min 841 W/m 12,9 km/h (3 Bft) 97,87 %
15.08.2019 15:04 21,0 C 26,1 C 20,6 C 85 % 1010,4 hPa 0,0 l/m 2 min 0 min 715 W/m 9,7 km/h (2 Bft) 97,87 %
15.08.2019 15:06 21,2 C 25,6 C 21,1 C 84 % 1010,4 hPa 0,0 l/m 2 min 0 min 772 W/m 19,3 km/h (3 Bft) 97,83 %
15.08.2019 15:08 21,3 C 23,9 C 20,6 C 83 % 1010,2 hPa 0,0 l/m 2 min 0 min 464 W/m 16,1 km/h (3 Bft) 93,62 %
15.08.2019 15:10 21,3 C 25,0 C 21,1 C 82 % 1010,4 hPa 0,0 l/m 2 min 0 min 764 W/m 16,1 km/h (3 Bft) 95,74 %
15.08.2019 15:12 21,5 C 26,1 C 21,1 C 82 % 1010,4 hPa 0,0 l/m 2 min 0 min 851 W/m 16,1 km/h (3 Bft) 95,74 %
15.08.2019 15:14 21,6 C 26,7 C 21,7 C 81 % 1010,4 hPa 0,0 l/m 2 min 0 min 841 W/m 16,1 km/h (3 Bft) 97,87 %
15.08.2019 15:16 21,7 C 26,7 C 21,7 C 80 % 1010,3 hPa 0,0 l/m 2 min 0 min 536 W/m 19,3 km/h (3 Bft) 97,87 %
15.08.2019 15:18 21,9 C 25,0 C 21,7 C 79 % 1010,4 hPa 0,0 l/m 2 min 0 min 556 W/m 22,5 km/h (4 Bft) 95,65 %
15.08.2019 15:20 21,9 C 24,4 C 21,7 C 77 % 1010,4 hPa 0,0 l/m 2 min 0 min 661 W/m 16,1 km/h (3 Bft) 97,87 %
15.08.2019 15:22 21,9 C 23,9 C 21,7 C 77 % 1010,5 hPa 0,0 l/m 2 min 0 min 661 W/m 25,7 km/h (4 Bft) 95,74 %
15.08.2019 15:24 22,0 C 25,6 C 21,7 C 77 % 1010,5 hPa 0,0 l/m 2 min 0 min 669 W/m 16,1 km/h (3 Bft) 95,74 %
15.08.2019 15:26 22,1 C 26,1 C 21,7 C 77 % 1010,5 hPa 0,0 l/m 2 min 0 min 728 W/m 9,7 km/h (2 Bft) 95,74 %
15.08.2019 15:28 22,2 C 26,7 C 22,2 C 77 % 1010,5 hPa 0,0 l/m 2 min 0 min 682 W/m 12,9 km/h (3 Bft) 93,62 %
15.08.2019 15:30 22,3 C 27,2 C 22,8 C 76 % 1010,5 hPa 0,0 l/m 2 min 0 min 915 W/m 16,1 km/h (3 Bft) 93,48 %
15.08.2019 15:32 22,4 C 27,2 C 22,8 C 76 % 1010,6 hPa 0,0 l/m 2 min 0 min 933 W/m 16,1 km/h (3 Bft) 93,62 %
15.08.2019 15:34 22,5 C 26,7 C 22,8 C 74 % 1010,6 hPa 0,0 l/m 2 min 0 min 958 W/m 19,3 km/h (3 Bft) 95,74 %
15.08.2019 15:36 22,6 C 23,9 C 22,2 C 73 % 1010,5 hPa 0,0 l/m 2 min 0 min 588 W/m 22,5 km/h (4 Bft) 95,74 %
15.08.2019 15:38 22,6 C 23,9 C 21,7 C 73 % 1010,5 hPa 0,0 l/m 0 min 0 min 304 W/m 12,9 km/h (3 Bft) 95,74 %
15.08.2019 15:40 22,6 C 24,4 C 22,2 C 73 % 1010,5 hPa 0,0 l/m 0 min 0 min 318 W/m 9,7 km/h (2 Bft) 93,62 %
15.08.2019 15:42 22,6 C 23,9 C 22,2 C 73 % 1010,6 hPa 0,0 l/m 2 min 0 min 396 W/m 16,1 km/h (3 Bft) 95,65 %
15.08.2019 15:44 22,6 C 23,3 C 22,2 C 72 % 1010,5 hPa 0,0 l/m 0 min 0 min 342 W/m 12,9 km/h (3 Bft) 100,00 %
15.08.2019 15:46 22,5 C 23,3 C 21,7 C 72 % 1010,6 hPa 0,0 l/m 0 min 0 min 319 W/m 9,7 km/h (2 Bft) 97,87 %
15.08.2019 15:48 22,4 C 22,8 C 21,7 C 71 % 1010,6 hPa 0,0 l/m 0 min 0 min 264 W/m 9,7 km/h (2 Bft) 97,87 %
15.08.2019 15:50 22,4 C 22,2 C 21,7 C 70 % 1010,6 hPa 0,0 l/m 0 min 0 min 215 W/m 12,9 km/h (3 Bft) 95,74 %
15.08.2019 15:52 22,3 C 22,2 C 21,1 C 70 % 1010,7 hPa 0,0 l/m 0 min 0 min 237 W/m 16,1 km/h (3 Bft) 95,74 %
15.08.2019 15:54 22,3 C 22,8 C 21,1 C 70 % 1010,7 hPa 0,0 l/m 0 min 0 min 278 W/m 16,1 km/h (3 Bft) 93,48 %
15.08.2019 15:56 22,2 C 23,9 C 21,7 C 70 % 1010,7 hPa 0,0 l/m 2 min 0 min 519 W/m 16,1 km/h (3 Bft) 91,49 %
15.08.2019 15:58 22,3 C 25,0 C 22,2 C 70 % 1010,7 hPa 0,0 l/m 2 min 0 min 621 W/m 16,1 km/h (3 Bft) 95,74 %
15.08.2019 16:00 22,3 C 25,6 C 22,2 C 69 % 1010,7 hPa 0,0 l/m 2 min 0 min 573 W/m 22,5 km/h (4 Bft) 95,74 %
15.08.2019 16:02 22,3 C 25,0 C 22,2 C 69 % 1010,6 hPa 0,0 l/m 2 min 0 min 589 W/m 19,3 km/h (3 Bft) 93,62 %
15.08.2019 16:04 22,3 C 24,4 C 21,7 C 67 % 1010,7 hPa 0,0 l/m 2 min 0 min 346 W/m 19,3 km/h (3 Bft) 93,48 %
15.08.2019 16:06 22,3 C 23,9 C 21,7 C 67 % 1010,7 hPa 0,0 l/m 0 min 0 min 292 W/m 9,7 km/h (2 Bft) 95,74 %
15.08.2019 16:08 22,3 C 22,8 C 21,7 C 67 % 1010,7 hPa 0,0 l/m 0 min 0 min 223 W/m 16,1 km/h (3 Bft) 95,74 %
15.08.2019 16:10 22,3 C 22,2 C 21,1 C 65 % 1010,8 hPa 0,0 l/m 0 min 0 min 171 W/m 25,7 km/h (4 Bft) 95,74 %
15.08.2019 16:12 22,1 C 21,7 C 20,6 C 65 % 1010,7 hPa 0,0 l/m 0 min 0 min 145 W/m 19,3 km/h (3 Bft) 95,74 %
15.08.2019 16:14 22,0 C 21,1 C 20,6 C 65 % 1010,8 hPa 0,0 l/m 0 min 0 min 153 W/m 29,0 km/h (5 Bft) 93,62 %
15.08.2019 16:16 21,9 C 21,1 C 20,6 C 66 % 1010,8 hPa 0,0 l/m 0 min 0 min 159 W/m 19,3 km/h (3 Bft) 97,83 %
15.08.2019 16:18 21,8 C 21,1 C 20,6 C 67 % 1010,9 hPa 0,0 l/m 0 min 0 min 185 W/m 19,3 km/h (3 Bft) 97,87 %
15.08.2019 16:20 21,7 C 21,7 C 20,6 C 68 % 1010,9 hPa 0,0 l/m 0 min 0 min 222 W/m 22,5 km/h (4 Bft) 97,87 %
15.08.2019 16:22 21,7 C 21,7 C 20,6 C 68 % 1010,9 hPa 0,0 l/m 0 min 0 min 268 W/m 22,5 km/h (4 Bft) 97,87 %
15.08.2019 16:24 21,7 C 22,8 C 21,1 C 69 % 1010,9 hPa 0,0 l/m 2 min 0 min 372 W/m 12,9 km/h (3 Bft) 97,87 %
15.08.2019 16:26 21,7 C 23,3 C 21,7 C 69 % 1010,9 hPa 0,0 l/m 2 min 0 min 452 W/m 16,1 km/h (3 Bft) 97,87 %
15.08.2019 16:28 21,7 C 23,9 C 22,2 C 68 % 1011,0 hPa 0,0 l/m 2 min 0 min 505 W/m 16,1 km/h (3 Bft) 97,83 %
15.08.2019 16:30 21,8 C 23,9 C 22,2 C 69 % 1011,0 hPa 0,0 l/m 2 min 0 min 458 W/m 25,7 km/h (4 Bft) 97,87 %
15.08.2019 16:32 21,8 C 23,3 C 21,7 C 69 % 1010,9 hPa 0,0 l/m 2 min 0 min 403 W/m 16,1 km/h (3 Bft) 95,74 %
15.08.2019 16:34 21,9 C 23,3 C 21,7 C 69 % 1011,1 hPa 0,0 l/m 2 min 0 min 440 W/m 12,9 km/h (3 Bft) 100,00 %
15.08.2019 16:36 21,9 C 23,3 C 21,7 C 70 % 1011,1 hPa 0,0 l/m 2 min 0 min 359 W/m 16,1 km/h (3 Bft) 100,00 %
15.08.2019 16:38 22,0 C 23,9 C 22,2 C 71 % 1011,1 hPa 0,0 l/m 2 min 0 min 392 W/m 12,9 km/h (3 Bft) 100,00 %
15.08.2019 16:40 22,1 C 23,9 C 22,8 C 70 % 1011,0 hPa 0,0 l/m 2 min 0 min 408 W/m 16,1 km/h (3 Bft) 97,87 %
15.08.2019 16:42 22,1 C 23,9 C 22,2 C 69 % 1011,1 hPa 0,0 l/m 2 min 0 min 426 W/m 19,3 km/h (3 Bft) 97,83 %
15.08.2019 16:44 22,1 C 23,3 C 21,7 C 70 % 1011,1 hPa 0,0 l/m 0 min 0 min 268 W/m 9,7 km/h (2 Bft) 97,87 %
15.08.2019 16:46 22,1 C 22,8 C 21,7 C 70 % 1011,2 hPa 0,0 l/m 0 min 0 min 196 W/m 16,1 km/h (3 Bft) 100,00 %
15.08.2019 16:48 22,1 C 22,2 C 21,1 C 70 % 1011,2 hPa 0,0 l/m 0 min 0 min 175 W/m 16,1 km/h (3 Bft) 100,00 %
15.08.2019 16:50 22,0 C 21,7 C 20,6 C 69 % 1011,2 hPa 0,0 l/m 0 min 0 min 164 W/m 22,5 km/h (4 Bft) 100,00 %
15.08.2019 16:52 21,9 C 21,1 C 20,6 C 69 % 1011,2 hPa 0,0 l/m 0 min 0 min 163 W/m 12,9 km/h (3 Bft) 97,83 %
15.08.2019 16:54 21,9 C 21,1 C 20,6 C 69 % 1011,2 hPa 0,0 l/m 0 min 0 min 172 W/m 12,9 km/h (3 Bft) 100,00 %
15.08.2019 16:56 21,8 C 21,7 C 20,6 C 70 % 1011,3 hPa 0,0 l/m 0 min 0 min 193 W/m 22,5 km/h (4 Bft) 97,87 %
15.08.2019 16:58 21,7 C 21,7 C 20,6 C 70 % 1011,3 hPa 0,0 l/m 0 min 0 min 237 W/m 25,7 km/h (4 Bft) 100,00 %
15.08.2019 17:00 21,7 C 21,7 C 20,6 C 70 % 1011,3 hPa 0,0 l/m 0 min 0 min 276 W/m 12,9 km/h (3 Bft) 97,87 %
15.08.2019 17:02 21,7 C 22,2 C 20,6 C 71 % 1011,4 hPa 0,0 l/m 0 min 0 min 253 W/m 9,7 km/h (2 Bft) 97,83 %
15.08.2019 17:04 21,6 C 22,2 C 21,1 C 71 % 1011,3 hPa 0,0 l/m 2 min 0 min 312 W/m 9,7 km/h (2 Bft) 100,00 %
15.08.2019 17:06 21,6 C 22,2 C 21,1 C 71 % 1011,3 hPa 0,0 l/m 2 min 0 min 315 W/m 19,3 km/h (3 Bft) 100,00 %
15.08.2019 17:08 21,6 C 22,8 C 21,1 C 71 % 1011,2 hPa 0,0 l/m 2 min 0 min 365 W/m 19,3 km/h (3 Bft) 100,00 %
15.08.2019 17:10 21,6 C 22,8 C 21,7 C 71 % 1011,2 hPa 0,0 l/m 2 min 0 min 447 W/m 22,5 km/h (4 Bft) 100,00 %
15.08.2019 17:12 21,6 C 23,9 C 21,7 C 71 % 1011,3 hPa 0,0 l/m 2 min 0 min 432 W/m 9,7 km/h (2 Bft) 100,00 %
15.08.2019 17:14 21,7 C 23,9 C 21,7 C 71 % 1011,3 hPa 0,0 l/m 2 min 0 min 475 W/m 16,1 km/h (3 Bft) 100,00 %
15.08.2019 17:16 21,8 C 25,0 C 22,2 C 71 % 1011,2 hPa 0,0 l/m 2 min 0 min 626 W/m 12,9 km/h (3 Bft) 97,87 %
15.08.2019 17:18 21,9 C 25,0 C 22,2 C 71 % 1011,3 hPa 0,0 l/m 2 min 0 min 675 W/m 12,9 km/h (3 Bft) 95,74 %
15.08.2019 17:20 21,9 C 25,0 C 22,2 C 71 % 1011,4 hPa 0,0 l/m 2 min 0 min 342 W/m 16,1 km/h (3 Bft) 100,00 %
15.08.2019 17:22 22,1 C 25,6 C 22,2 C 72 % 1011,4 hPa 0,0 l/m 2 min 0 min 694 W/m 12,9 km/h (3 Bft) 100,00 %
15.08.2019 17:24 22,2 C 25,6 C 22,2 C 71 % 1011,4 hPa 0,0 l/m 2 min 0 min 610 W/m 19,3 km/h (3 Bft) 97,87 %
15.08.2019 17:26 22,2 C 24,4 C 21,7 C 70 % 1011,4 hPa 0,0 l/m 2 min 0 min 482 W/m 16,1 km/h (3 Bft) 100,00 %
15.08.2019 17:28 22,3 C 23,3 C 21,7 C 70 % 1011,4 hPa 0,0 l/m 2 min 0 min 476 W/m 9,7 km/h (2 Bft) 100,00 %
15.08.2019 17:30 22,3 C 23,3 C 21,1 C 69 % 1011,4 hPa 0,0 l/m 0 min 0 min 215 W/m 22,5 km/h (4 Bft) 97,87 %
15.08.2019 17:32 22,3 C 25,0 C 21,7 C 69 % 1011,5 hPa 0,0 l/m 2 min 0 min 541 W/m 12,9 km/h (3 Bft) 100,00 %
15.08.2019 17:34 22,3 C 25,0 C 21,7 C 69 % 1011,5 hPa 0,0 l/m 2 min 0 min 563 W/m 12,9 km/h (3 Bft) 100,00 %
15.08.2019 17:36 22,4 C 25,0 C 21,7 C 69 % 1011,5 hPa 0,0 l/m 2 min 0 min 552 W/m 19,3 km/h (3 Bft) 100,00 %
15.08.2019 17:38 22,4 C 25,0 C 21,7 C 68 % 1011,4 hPa 0,0 l/m 2 min 0 min 547 W/m 12,9 km/h (3 Bft) 100,00 %
15.08.2019 17:40 22,4 C 25,0 C 21,7 C 68 % 1011,5 hPa 0,0 l/m 2 min 0 min 523 W/m 25,7 km/h (4 Bft) 100,00 %
15.08.2019 17:42 22,4 C 24,4 C 21,7 C 67 % 1011,5 hPa 0,0 l/m 2 min 0 min 278 W/m 16,1 km/h (3 Bft) 100,00 %
15.08.2019 17:44 22,5 C 25,0 C 21,7 C 67 % 1011,4 hPa 0,0 l/m 2 min 0 min 488 W/m 19,3 km/h (3 Bft) 100,00 %
15.08.2019 17:46 22,6 C 26,1 C 21,7 C 67 % 1011,5 hPa 0,0 l/m 2 min 0 min 524 W/m 9,7 km/h (2 Bft) 100,00 %
15.08.2019 17:48 22,6 C 25,6 C 21,7 C 66 % 1011,5 hPa 0,0 l/m 2 min 0 min 507 W/m 9,7 km/h (2 Bft) 100,00 %
15.08.2019 17:50 22,6 C 25,6 C 21,7 C 66 % 1011,4 hPa 0,0 l/m 2 min 0 min 495 W/m 12,9 km/h (3 Bft) 100,00 %
15.08.2019 17:52 22,7 C 26,1 C 21,7 C 66 % 1011,5 hPa 0,0 l/m 2 min 0 min 485 W/m 16,1 km/h (3 Bft) 97,83 %
15.08.2019 17:54 22,7 C 26,1 C 21,7 C 65 % 1011,4 hPa 0,0 l/m 2 min 0 min 475 W/m 9,7 km/h (2 Bft) 97,87 %
15.08.2019 17:56 22,7 C 26,1 C 21,7 C 65 % 1011,4 hPa 0,0 l/m 2 min 0 min 471 W/m 9,7 km/h (2 Bft) 100,00 %
15.08.2019 17:58 22,8 C 26,1 C 21,7 C 66 % 1011,5 hPa 0,0 l/m 2 min 0 min 467 W/m 12,9 km/h (3 Bft) 97,87 %
15.08.2019 18:00 22,8 C 25,0 C 21,7 C 64 % 1011,4 hPa 0,0 l/m 2 min 0 min 456 W/m 19,3 km/h (3 Bft) 100,00 %
15.08.2019 18:02 22,8 C 25,0 C 21,7 C 64 % 1011,3 hPa 0,0 l/m 2 min 0 min 443 W/m 16,1 km/h (3 Bft) 95,74 %
15.08.2019 18:04 22,8 C 25,0 C 21,7 C 64 % 1011,3 hPa 0,0 l/m 2 min 0 min 423 W/m 16,1 km/h (3 Bft) 100,00 %
15.08.2019 18:08 22,8 C 25,0 C 21,7 C 65 % 1011,4 hPa 0,0 l/m 4 min 0 min 401 W/m 9,7 km/h (2 Bft) 100,00 %
15.08.2019 18:10 22,9 C 25,0 C 21,7 C 65 % 1011,4 hPa 0,0 l/m 2 min 0 min 424 W/m 16,1 km/h (3 Bft) 95,74 %
15.08.2019 18:12 22,9 C 25,0 C 21,7 C 66 % 1011,4 hPa 0,0 l/m 2 min 0 min 395 W/m 9,7 km/h (2 Bft) 95,74 %
15.08.2019 18:14 22,9 C 23,3 C 21,1 C 66 % 1011,4 hPa 0,0 l/m 2 min 0 min 244 W/m 9,7 km/h (2 Bft) 97,83 %
15.08.2019 18:16 22,8 C 23,3 C 21,1 C 65 % 1011,3 hPa 0,0 l/m 0 min 0 min 166 W/m 12,9 km/h (3 Bft) 97,87 %
15.08.2019 18:18 22,7 C 23,3 C 20,6 C 66 % 1011,4 hPa 0,0 l/m 2 min 0 min 395 W/m 12,9 km/h (3 Bft) 97,87 %
15.08.2019 18:20 22,7 C 22,8 C 20,6 C 65 % 1011,6 hPa 0,0 l/m 2 min 0 min 367 W/m 16,1 km/h (3 Bft) 93,62 %
15.08.2019 18:22 22,6 C 22,2 C 20,6 C 66 % 1011,6 hPa 0,0 l/m 0 min 0 min 108 W/m 16,1 km/h (3 Bft) 93,62 %
15.08.2019 18:24 22,4 C 21,7 C 20,6 C 67 % 1011,5 hPa 0,0 l/m 0 min 0 min 98 W/m 12,9 km/h (3 Bft) 93,62 %
15.08.2019 18:26 22,4 C 22,8 C 20,6 C 67 % 1011,6 hPa 0,0 l/m 2 min 0 min 249 W/m 9,7 km/h (2 Bft) 93,48 %
15.08.2019 18:28 22,3 C 23,9 C 20,6 C 67 % 1011,7 hPa 0,0 l/m 2 min 0 min 379 W/m 6,4 km/h (2 Bft) 93,62 %
15.08.2019 18:30 22,3 C 22,8 C 20,6 C 67 % 1011,8 hPa 0,0 l/m 2 min 0 min 272 W/m 19,3 km/h (3 Bft) 91,49 %
15.08.2019 18:32 22,2 C 22,8 C 20,6 C 67 % 1011,8 hPa 0,0 l/m 0 min 0 min 132 W/m 9,7 km/h (2 Bft) 93,62 %
15.08.2019 18:34 22,2 C 22,8 C 20,6 C 67 % 1011,8 hPa 0,0 l/m 2 min 0 min 218 W/m 16,1 km/h (3 Bft) 91,49 %
15.08.2019 18:36 22,2 C 23,3 C 20,6 C 66 % 1011,9 hPa 0,0 l/m 2 min 0 min 314 W/m 25,7 km/h (4 Bft) 93,62 %
15.08.2019 18:38 22,1 C 22,8 C 20,6 C 67 % 1011,9 hPa 0,0 l/m 2 min 0 min 301 W/m 19,3 km/h (3 Bft) 93,48 %
15.08.2019 18:40 22,1 C 21,7 C 20,6 C 67 % 1011,8 hPa 0,0 l/m 0 min 0 min 115 W/m 9,7 km/h (2 Bft) 93,62 %
15.08.2019 18:42 22,1 C 21,1 C 20,6 C 67 % 1011,8 hPa 0,0 l/m 0 min 0 min 79 W/m 12,9 km/h (3 Bft) 93,62 %
15.08.2019 18:44 21,9 C 20,6 C 20,0 C 67 % 1011,9 hPa 0,0 l/m 0 min 0 min 65 W/m 12,9 km/h (3 Bft) 93,62 %
15.08.2019 18:46 21,9 C 20,6 C 20,0 C 67 % 1012,0 hPa 0,0 l/m 0 min 0 min 54 W/m 12,9 km/h (3 Bft) 95,74 %
15.08.2019 18:48 21,8 C 20,6 C 20,0 C 67 % 1012,0 hPa 0,0 l/m 0 min 0 min 43 W/m 22,5 km/h (4 Bft) 93,62 %
15.08.2019 18:50 21,7 C 20,0 C 20,0 C 67 % 1012,1 hPa 0,0 l/m 0 min 0 min 31 W/m 16,1 km/h (3 Bft) 93,48 %
15.08.2019 18:52 21,6 C 20,0 C 20,0 C 68 % 1012,1 hPa 0,0 l/m 0 min 0 min 26 W/m 16,1 km/h (3 Bft) 91,49 %
15.08.2019 18:54 21,5 C 20,0 C 19,4 C 68 % 1012,1 hPa 0,0 l/m 0 min 0 min 22 W/m 12,9 km/h (3 Bft) 93,62 %
15.08.2019 18:56 21,4 C 20,0 C 19,4 C 69 % 1012,1 hPa 0,0 l/m 0 min 0 min 18 W/m 9,7 km/h (2 Bft) 95,74 %
15.08.2019 18:58 21,3 C 19,4 C 19,4 C 69 % 1012,2 hPa 0,0 l/m 0 min 0 min 16 W/m 16,1 km/h (3 Bft) 93,62 %
15.08.2019 19:00 21,2 C 19,4 C 19,4 C 69 % 1012,2 hPa 0,0 l/m 0 min 0 min 15 W/m 16,1 km/h (3 Bft) 93,62 %
15.08.2019 19:02 21,1 C 19,4 C 18,9 C 70 % 1012,2 hPa 0,0 l/m 0 min 0 min 15 W/m 16,1 km/h (3 Bft) 91,49 %
15.08.2019 19:04 21,0 C 19,4 C 18,9 C 70 % 1012,2 hPa 0,0 l/m 0 min 0 min 17 W/m 12,9 km/h (3 Bft) 95,74 %
15.08.2019 19:06 20,9 C 18,9 C 18,9 C 70 % 1012,3 hPa 0,0 l/m 0 min 0 min 19 W/m 9,7 km/h (2 Bft) 91,49 %
15.08.2019 19:08 20,8 C 18,9 C 18,3 C 71 % 1012,4 hPa 0,0 l/m 0 min 2 min 23 W/m 22,5 km/h (4 Bft) 97,87 %
15.08.2019 19:10 20,7 C 18,3 C 17,8 C 72 % 1012,5 hPa 0,0 l/m 0 min 2 min 29 W/m 16,1 km/h (3 Bft) 95,74 %
15.08.2019 19:12 20,6 C 17,8 C 17,8 C 73 % 1012,4 hPa 0,0 l/m 0 min 2 min 46 W/m 16,1 km/h (3 Bft) 97,83 %
15.08.2019 19:14 20,4 C 18,3 C 17,8 C 73 % 1012,5 hPa 0,0 l/m 0 min 2 min 69 W/m 22,5 km/h (4 Bft) 100,00 %
15.08.2019 19:16 20,3 C 17,8 C 17,2 C 73 % 1012,5 hPa 0,0 l/m 0 min 2 min 87 W/m 19,3 km/h (3 Bft) 100,00 %
15.08.2019 19:18 20,1 C 17,8 C 17,2 C 74 % 1012,5 hPa 0,0 l/m 0 min 2 min 84 W/m 19,3 km/h (3 Bft) 100,00 %
15.08.2019 19:20 20,0 C 17,8 C 17,8 C 75 % 1012,6 hPa 0,0 l/m 0 min 0 min 74 W/m 16,1 km/h (3 Bft) 100,00 %
15.08.2019 19:22 19,9 C 17,8 C 17,8 C 75 % 1012,6 hPa 0,0 l/m 0 min 0 min 69 W/m 12,9 km/h (3 Bft) 100,00 %
15.08.2019 19:24 19,8 C 18,3 C 17,8 C 75 % 1012,6 hPa 0,0 l/m 0 min 0 min 64 W/m 16,1 km/h (3 Bft) 100,00 %
15.08.2019 19:26 19,7 C 18,3 C 17,8 C 75 % 1012,6 hPa 0,0 l/m 0 min 0 min 59 W/m 16,1 km/h (3 Bft) 100,00 %
15.08.2019 19:28 19,7 C 18,3 C 17,8 C 76 % 1012,6 hPa 0,0 l/m 0 min 0 min 62 W/m 16,1 km/h (3 Bft) 100,00 %
15.08.2019 19:30 19,6 C 18,3 C 17,8 C 76 % 1012,6 hPa 0,0 l/m 0 min 0 min 66 W/m 6,4 km/h (2 Bft) 100,00 %
15.08.2019 19:32 19,5 C 18,3 C 17,8 C 76 % 1012,6 hPa 0,0 l/m 0 min 0 min 67 W/m 12,9 km/h (3 Bft) 93,62 %
15.08.2019 19:34 19,4 C 18,3 C 17,8 C 76 % 1012,7 hPa 0,0 l/m 0 min 0 min 72 W/m 12,9 km/h (3 Bft) 97,87 %
15.08.2019 19:36 19,3 C 18,3 C 17,8 C 77 % 1012,7 hPa 0,0 l/m 0 min 0 min 87 W/m 16,1 km/h (3 Bft) 100,00 %
15.08.2019 19:38 19,3 C 18,3 C 18,3 C 77 % 1012,7 hPa 0,0 l/m 2 min 0 min 102 W/m 6,4 km/h (2 Bft) 100,00 %
15.08.2019 19:40 19,2 C 18,3 C 18,3 C 77 % 1012,7 hPa 0,0 l/m 2 min 0 min 108 W/m 9,7 km/h (2 Bft) 100,00 %
15.08.2019 19:42 19,2 C 18,3 C 18,3 C 77 % 1012,7 hPa 0,0 l/m 2 min 0 min 98 W/m 12,9 km/h (3 Bft) 100,00 %
15.08.2019 19:44 19,1 C 18,3 C 17,8 C 78 % 1012,8 hPa 0,0 l/m 2 min 0 min 85 W/m 22,5 km/h (4 Bft) 100,00 %
15.08.2019 19:46 19,1 C 18,3 C 17,8 C 78 % 1012,8 hPa 0,0 l/m 0 min 0 min 76 W/m 9,7 km/h (2 Bft) 100,00 %
15.08.2019 19:48 19,1 C 18,3 C 17,8 C 78 % 1012,9 hPa 0,0 l/m 0 min 0 min 68 W/m 12,9 km/h (3 Bft) 97,83 %
15.08.2019 19:50 19,0 C 18,3 C 17,8 C 78 % 1012,8 hPa 0,0 l/m 0 min 0 min 59 W/m 6,4 km/h (2 Bft) 100,00 %
15.08.2019 19:52 19,0 C 18,3 C 17,8 C 78 % 1012,8 hPa 0,0 l/m 0 min 0 min 54 W/m 9,7 km/h (2 Bft) 100,00 %
15.08.2019 19:53 19,0 C 18,3 C 17,8 C 78 % 1012,8 hPa 0,0 l/m 0 min 0 min 50 W/m 6,4 km/h (2 Bft) 100,00 %
15.08.2019 19:56 18,9 C 17,8 C 17,8 C 78 % 1012,9 hPa 0,0 l/m 0 min 0 min 46 W/m 9,7 km/h (2 Bft) 100,00 %
15.08.2019 19:58 18,9 C 17,8 C 17,8 C 79 % 1012,9 hPa 0,0 l/m 0 min 0 min 42 W/m 9,7 km/h (2 Bft) 100,00 %
15.08.2019 20:00 18,9 C 17,8 C 17,8 C 79 % 1013,0 hPa 0,0 l/m 0 min 0 min 39 W/m 6,4 km/h (2 Bft) 100,00 %
15.08.2019 20:02 18,9 C 17,8 C 17,8 C 79 % 1013,0 hPa 0,0 l/m 0 min 0 min 35 W/m 6,4 km/h (2 Bft) 97,87 %
15.08.2019 20:04 18,8 C 17,8 C 17,8 C 79 % 1012,9 hPa 0,0 l/m 0 min 0 min 34 W/m 9,7 km/h (2 Bft) 100,00 %
15.08.2019 20:06 18,8 C 17,8 C 17,2 C 79 % 1013,0 hPa 0,0 l/m 0 min 0 min 29 W/m 12,9 km/h (3 Bft) 100,00 %
15.08.2019 20:08 18,8 C 17,8 C 17,2 C 79 % 1013,0 hPa 0,0 l/m 0 min 0 min 26 W/m 9,7 km/h (2 Bft) 97,87 %
15.08.2019 20:10 18,7 C 17,8 C 17,2 C 79 % 1013,1 hPa 0,0 l/m 0 min 0 min 26 W/m 19,3 km/h (3 Bft) 100,00 %
15.08.2019 20:12 18,7 C 17,8 C 17,2 C 79 % 1013,1 hPa 0,0 l/m 0 min 0 min 25 W/m 16,1 km/h (3 Bft) 95,74 %
15.08.2019 20:14 18,7 C 17,2 C 17,2 C 80 % 1013,2 hPa 0,0 l/m 0 min 0 min 23 W/m 9,7 km/h (2 Bft) 100,00 %
15.08.2019 20:16 18,6 C 17,2 C 17,2 C 80 % 1013,2 hPa 0,0 l/m 0 min 0 min 23 W/m 6,4 km/h (2 Bft) 100,00 %
15.08.2019 20:18 18,6 C 17,2 C 17,2 C 81 % 1013,3 hPa 0,0 l/m 0 min 0 min 22 W/m 6,4 km/h (2 Bft) 100,00 %
15.08.2019 20:20 18,6 C 17,2 C 17,2 C 81 % 1013,3 hPa 0,0 l/m 0 min 0 min 21 W/m 6,4 km/h (2 Bft) 93,62 %
15.08.2019 20:22 18,6 C 17,2 C 17,2 C 81 % 1013,3 hPa 0,0 l/m 0 min 0 min 21 W/m 9,7 km/h (2 Bft) 100,00 %
15.08.2019 20:24 18,5 C 17,2 C 17,2 C 81 % 1013,3 hPa 0,0 l/m 0 min 0 min 21 W/m 6,4 km/h (2 Bft) 100,00 %
15.08.2019 20:26 18,5 C 16,7 C 16,7 C 82 % 1013,4 hPa 0,0 l/m 0 min 0 min 21 W/m 9,7 km/h (2 Bft) 95,74 %
15.08.2019 20:28 18,4 C 16,7 C 16,7 C 82 % 1013,4 hPa 0,0 l/m 0 min 0 min 21 W/m 12,9 km/h (3 Bft) 97,87 %
15.08.2019 20:30 18,4 C 16,7 C 16,7 C 82 % 1013,5 hPa 0,0 l/m 0 min 0 min 19 W/m 6,4 km/h (2 Bft) 100,00 %
15.08.2019 20:32 18,4 C 16,7 C 16,7 C 82 % 1013,5 hPa 0,0 l/m 0 min 0 min 18 W/m 3,2 km/h (1 Bft) 100,00 %
15.08.2019 20:34 18,3 C 16,7 C 16,7 C 82 % 1013,5 hPa 0,0 l/m 0 min 0 min 18 W/m 9,7 km/h (2 Bft) 97,83 %
15.08.2019 20:36 18,3 C 16,7 C 16,7 C 83 % 1013,6 hPa 0,0 l/m 0 min 0 min 18 W/m 12,9 km/h (3 Bft) 100,00 %
15.08.2019 20:38 18,3 C 16,7 C 16,7 C 83 % 1013,6 hPa 0,0 l/m 0 min 0 min 19 W/m 6,4 km/h (2 Bft) 100,00 %
15.08.2019 20:40 18,2 C 16,7 C 16,7 C 83 % 1013,6 hPa 0,0 l/m 0 min 0 min 13 W/m 6,4 km/h (2 Bft) 97,87 %
15.08.2019 20:42 18,2 C 16,7 C 16,7 C 83 % 1013,7 hPa 0,0 l/m 0 min 0 min 12 W/m 6,4 km/h (2 Bft) 100,00 %
15.08.2019 20:44 18,2 C 16,7 C 16,7 C 84 % 1013,7 hPa 0,0 l/m 0 min 0 min 11 W/m 6,4 km/h (2 Bft) 97,87 %
15.08.2019 20:46 18,2 C 16,7 C 16,7 C 84 % 1013,9 hPa 0,0 l/m 0 min 0 min 9 W/m 6,4 km/h (2 Bft) 95,65 %
15.08.2019 20:48 18,1 C 16,7 C 16,7 C 84 % 1013,8 hPa 0,0 l/m 0 min 0 min 8 W/m 6,4 km/h (2 Bft) 97,87 %
15.08.2019 20:50 18,1 C 16,7 C 16,7 C 84 % 1013,8 hPa 0,0 l/m 0 min 0 min 7 W/m 9,7 km/h (2 Bft) 97,87 %
15.08.2019 20:52 18,1 C 16,7 C 16,7 C 84 % 1013,8 hPa 0,0 l/m 0 min 0 min 5 W/m 9,7 km/h (2 Bft) 97,87 %
15.08.2019 20:54 18,0 C 16,7 C 16,7 C 84 % 1013,8 hPa 0,0 l/m 0 min 0 min 5 W/m 6,4 km/h (2 Bft) 100,00 %
15.08.2019 20:56 17,9 C 16,1 C 16,1 C 85 % 1013,9 hPa 0,0 l/m 0 min 0 min 3 W/m 3,2 km/h (1 Bft) 95,74 %
15.08.2019 20:58 17,9 C 16,1 C 16,1 C 85 % 1014,0 hPa 0,0 l/m 0 min 0 min 0 W/m 6,4 km/h (2 Bft) 100,00 %
15.08.2019 21:00 17,9 C 16,1 C 16,1 C 85 % 1014,0 hPa 0,0 l/m 0 min 0 min 0 W/m 3,2 km/h (1 Bft) 97,87 %
15.08.2019 21:02 17,9 C 16,1 C 16,1 C 85 % 1014,0 hPa 0,0 l/m 0 min 0 min 0 W/m 6,4 km/h (2 Bft) 97,87 %
15.08.2019 21:04 17,8 C 16,1 C 16,1 C 85 % 1014,1 hPa 0,0 l/m 0 min 0 min 0 W/m 6,4 km/h (2 Bft) 97,87 %
15.08.2019 21:06 17,8 C 16,1 C 16,1 C 85 % 1014,2 hPa 0,0 l/m 0 min 0 min 0 W/m 3,2 km/h (1 Bft) 95,74 %
15.08.2019 21:08 17,8 C 16,1 C 16,1 C 85 % 1014,2 hPa 0,0 l/m 0 min 0 min 0 W/m 3,2 km/h (1 Bft) 97,83 %
15.08.2019 21:10 17,7 C 16,1 C 16,1 C 85 % 1014,2 hPa 0,0 l/m 0 min 0 min 0 W/m 6,4 km/h (2 Bft) 95,74 %
15.08.2019 21:12 17,7 C 16,1 C 16,1 C 86 % 1014,2 hPa 0,0 l/m 0 min 0 min 0 W/m 3,2 km/h (1 Bft) 95,74 %
15.08.2019 21:14 17,7 C 16,1 C 16,1 C 86 % 1014,3 hPa 0,0 l/m 0 min 0 min 0 W/m 6,4 km/h (2 Bft) 93,62 %
15.08.2019 21:16 17,7 C 16,1 C 16,1 C 86 % 1014,3 hPa 0,0 l/m 0 min 0 min 0 W/m 6,4 km/h (2 Bft) 95,74 %
15.08.2019 21:18 17,7 C 16,1 C 16,1 C 86 % 1014,4 hPa 0,0 l/m 0 min 0 min 0 W/m 6,4 km/h (2 Bft) 95,74 %
15.08.2019 21:20 17,6 C 16,1 C 16,1 C 86 % 1014,4 hPa 0,0 l/m 0 min 0 min 0 W/m 6,4 km/h (2 Bft) 97,83 %
15.08.2019 21:22 17,6 C 16,1 C 16,1 C 86 % 1014,5 hPa 0,0 l/m 0 min 0 min 0 W/m 3,2 km/h (1 Bft) 95,74 %
15.08.2019 21:24 17,6 C 16,1 C 16,1 C 86 % 1014,5 hPa 0,0 l/m 0 min 0 min 0 W/m 6,4 km/h (2 Bft) 95,74 %
15.08.2019 21:26 17,6 C 16,1 C 16,1 C 87 % 1014,6 hPa 0,0 l/m 0 min 0 min 0 W/m 6,4 km/h (2 Bft) 95,74 %
15.08.2019 21:28 17,6 C 16,1 C 16,1 C 87 % 1014,6 hPa 0,0 l/m 0 min 0 min 0 W/m 3,2 km/h (1 Bft) 93,62 %
15.08.2019 21:30 17,6 C 16,1 C 16,1 C 87 % 1014,6 hPa 0,0 l/m 0 min 0 min 0 W/m 3,2 km/h (1 Bft) 95,74 %
15.08.2019 21:32 17,6 C 16,1 C 16,1 C 87 % 1014,7 hPa 0,0 l/m 0 min 0 min 0 W/m 6,4 km/h (2 Bft) 95,65 %
15.08.2019 21:34 17,5 C 16,1 C 16,1 C 87 % 1014,7 hPa 0,0 l/m 0 min 0 min 0 W/m 6,4 km/h (2 Bft) 95,74 %
15.08.2019 21:36 17,5 C 16,1 C 16,1 C 87 % 1014,7 hPa 0,0 l/m 0 min 0 min 0 W/m 0,0 km/h (0 Bft) 93,62 %
15.08.2019 21:38 17,5 C 16,1 C 16,1 C 87 % 1014,8 hPa 0,0 l/m 0 min 0 min 0 W/m 6,4 km/h (2 Bft) 95,74 %
15.08.2019 21:40 17,4 C 16,1 C 16,1 C 87 % 1014,8 hPa 0,0 l/m 0 min 0 min 0 W/m 3,2 km/h (1 Bft) 95,74 %
15.08.2019 21:42 17,4 C 16,1 C 16,1 C 87 % 1014,9 hPa 0,0 l/m 0 min 0 min 0 W/m 3,2 km/h (1 Bft) 93,62 %
15.08.2019 21:44 17,4 C 16,1 C 16,1 C 87 % 1014,9 hPa 0,0 l/m 0 min 0 min 0 W/m 3,2 km/h (1 Bft) 95,65 %
15.08.2019 21:46 17,4 C 16,1 C 16,1 C 87 % 1015,0 hPa 0,0 l/m 0 min 0 min 0 W/m 3,2 km/h (1 Bft) 91,49 %
15.08.2019 21:48 17,4 C 16,1 C 16,1 C 87 % 1015,0 hPa 0,0 l/m 0 min 0 min 0 W/m 6,4 km/h (2 Bft) 93,62 %
15.08.2019 21:50 17,3 C 16,1 C 16,1 C 87 % 1015,1 hPa 0,0 l/m 0 min 0 min 0 W/m 6,4 km/h (2 Bft) 93,62 %
15.08.2019 21:52 17,3 C 16,1 C 16,1 C 87 % 1015,1 hPa 0,0 l/m 0 min 0 min 0 W/m 6,4 km/h (2 Bft) 97,87 %
15.08.2019 21:54 17,3 C 16,1 C 16,1 C 88 % 1015,2 hPa 0,0 l/m 0 min 0 min 0 W/m 6,4 km/h (2 Bft) 95,74 %
15.08.2019 21:56 17,3 C 16,1 C 16,1 C 88 % 1015,2 hPa 0,0 l/m 0 min 0 min 0 W/m 6,4 km/h (2 Bft) 97,83 %
15.08.2019 21:58 17,2 C 15,6 C 16,1 C 88 % 1015,2 hPa 0,0 l/m 0 min 0 min 0 W/m 3,2 km/h (1 Bft) 97,87 %
15.08.2019 22:00 17,2 C 15,6 C 15,6 C 88 % 1015,2 hPa 0,0 l/m 0 min 0 min 0 W/m 3,2 km/h (1 Bft) 97,87 %
15.08.2019 22:02 17,2 C 15,6 C 15,6 C 88 % 1015,3 hPa 0,0 l/m 0 min 0 min 0 W/m 6,4 km/h (2 Bft) 95,74 %
15.08.2019 22:04 17,1 C 15,6 C 15,6 C 88 % 1015,3 hPa 0,0 l/m 0 min 0 min 0 W/m 3,2 km/h (1 Bft) 97,87 %
15.08.2019 22:06 17,1 C 15,6 C 15,6 C 88 % 1015,3 hPa 0,0 l/m 0 min 0 min 0 W/m 3,2 km/h (1 Bft) 97,87 %
15.08.2019 22:08 17,1 C 15,6 C 15,6 C 88 % 1015,3 hPa 0,0 l/m 0 min 0 min 0 W/m 3,2 km/h (1 Bft) 97,83 %
15.08.2019 22:10 17,1 C 15,6 C 15,6 C 88 % 1015,3 hPa 0,0 l/m 0 min 0 min 0 W/m 0,0 km/h (0 Bft) 97,87 %
15.08.2019 22:12 17,1 C 15,6 C 15,6 C 88 % 1015,4 hPa 0,0 l/m 0 min 0 min 0 W/m 3,2 km/h (1 Bft) 97,87 %
15.08.2019 22:14 17,0 C 15,6 C 15,6 C 88 % 1015,3 hPa 0,0 l/m 0 min 0 min 0 W/m 3,2 km/h (1 Bft) 97,87 %
15.08.2019 22:16 17,0 C 15,6 C 15,6 C 88 % 1015,3 hPa 0,0 l/m 0 min 0 min 0 W/m 6,4 km/h (2 Bft) 95,74 %
15.08.2019 22:18 16,9 C 15,6 C 15,6 C 88 % 1015,4 hPa 0,0 l/m 0 min 0 min 0 W/m 3,2 km/h (1 Bft) 97,87 %
15.08.2019 22:20 16,9 C 15,0 C 15,0 C 88 % 1015,4 hPa 0,0 l/m 0 min 0 min 0 W/m 3,2 km/h (1 Bft) 97,83 %
15.08.2019 22:22 16,9 C 15,0 C 15,0 C 88 % 1015,4 hPa 0,0 l/m 0 min 0 min 0 W/m 3,2 km/h (1 Bft) 97,87 %
15.08.2019 22:24 16,9 C 15,0 C 15,0 C 88 % 1015,4 hPa 0,0 l/m 0 min 0 min 0 W/m 6,4 km/h (2 Bft) 97,87 %
15.08.2019 22:26 16,8 C 15,0 C 15,0 C 88 % 1015,4 hPa 0,0 l/m 0 min 0 min 0 W/m 3,2 km/h (1 Bft) 97,87 %
15.08.2019 22:28 16,8 C 15,0 C 15,0 C 88 % 1015,4 hPa 0,0 l/m 0 min 0 min 0 W/m 0,0 km/h (0 Bft) 97,87 %
15.08.2019 22:30 16,8 C 15,0 C 15,0 C 88 % 1015,4 hPa 0,0 l/m 0 min 0 min 0 W/m 3,2 km/h (1 Bft) 97,83 %
15.08.2019 22:32 16,8 C 15,0 C 15,0 C 88 % 1015,4 hPa 0,0 l/m 0 min 0 min 0 W/m 3,2 km/h (1 Bft) 95,74 %
15.08.2019 22:34 16,7 C 15,0 C 15,0 C 88 % 1015,4 hPa 0,0 l/m 0 min 0 min 0 W/m 3,2 km/h (1 Bft) 95,74 %
15.08.2019 22:36 16,7 C 15,0 C 15,0 C 88 % 1015,4 hPa 0,0 l/m 0 min 0 min 0 W/m 0,0 km/h (0 Bft) 97,87 %
15.08.2019 22:38 16,7 C 15,0 C 15,0 C 88 % 1015,5 hPa 0,0 l/m 0 min 0 min 0 W/m 3,2 km/h (1 Bft) 95,74 %
15.08.2019 22:40 16,6 C 15,0 C 15,0 C 89 % 1015,5 hPa 0,0 l/m 0 min 0 min 0 W/m 3,2 km/h (1 Bft) 97,87 %
15.08.2019 22:42 16,6 C 15,0 C 15,0 C 89 % 1015,6 hPa 0,0 l/m 0 min 0 min 0 W/m 3,2 km/h (1 Bft) 97,83 %
15.08.2019 22:44 16,6 C 15,0 C 15,0 C 89 % 1015,6 hPa 0,0 l/m 0 min 0 min 0 W/m 3,2 km/h (1 Bft) 97,87 %
15.08.2019 22:46 16,6 C 15,0 C 15,0 C 89 % 1015,6 hPa 0,0 l/m 0 min 0 min 0 W/m 0,0 km/h (0 Bft) 97,87 %
15.08.2019 22:48 16,5 C 15,0 C 14,4 C 89 % 1015,7 hPa 0,0 l/m 0 min 0 min 0 W/m 3,2 km/h (1 Bft) 97,87 %
15.08.2019 22:50 16,5 C 15,0 C 15,0 C 89 % 1015,7 hPa 0,0 l/m 0 min 0 min 0 W/m 6,4 km/h (2 Bft) 95,74 %
15.08.2019 22:52 16,4 C 15,0 C 15,0 C 89 % 1015,7 hPa 0,0 l/m 0 min 0 min 0 W/m 3,2 km/h (1 Bft) 100,00 %
15.08.2019 22:54 16,4 C 14,4 C 15,0 C 89 % 1015,8 hPa 0,0 l/m 0 min 0 min 0 W/m 3,2 km/h (1 Bft) 95,65 %
15.08.2019 22:56 16,4 C 15,0 C 14,4 C 89 % 1015,8 hPa 0,0 l/m 0 min 0 min 0 W/m 6,4 km/h (2 Bft) 97,87 %
15.08.2019 22:58 16,3 C 15,0 C 14,4 C 89 % 1015,7 hPa 0,0 l/m 0 min 0 min 0 W/m 3,2 km/h (1 Bft) 100,00 %
15.08.2019 23:00 16,3 C 14,4 C 14,4 C 89 % 1015,7 hPa 0,0 l/m 0 min 0 min 0 W/m 3,2 km/h (1 Bft) 100,00 %
15.08.2019 23:02 16,3 C 14,4 C 14,4 C 89 % 1015,7 hPa 0,0 l/m 0 min 0 min 0 W/m 0,0 km/h (0 Bft) 97,87 %
15.08.2019 23:04 16,3 C 14,4 C 14,4 C 89 % 1015,7 hPa 0,0 l/m 0 min 0 min 0 W/m 3,2 km/h (1 Bft) 100,00 %
15.08.2019 23:06 16,2 C 14,4 C 15,0 C 89 % 1015,8 hPa 0,0 l/m 0 min 0 min 0 W/m 0,0 km/h (0 Bft) 100,00 %
15.08.2019 23:08 16,2 C 14,4 C 15,0 C 89 % 1015,7 hPa 0,0 l/m 0 min 0 min 0 W/m 3,2 km/h (1 Bft) 100,00 %
15.08.2019 23:10 16,2 C 14,4 C 15,0 C 89 % 1015,8 hPa 0,0 l/m 0 min 0 min 0 W/m 3,2 km/h (1 Bft) 100,00 %
15.08.2019 23:12 16,1 C 14,4 C 15,0 C 89 % 1015,8 hPa 0,0 l/m 0 min 0 min 0 W/m 3,2 km/h (1 Bft) 97,87 %
15.08.2019 23:15 16,1 C 15,0 C 15,0 C 89 % 1015,8 hPa 0,0 l/m 0 min 0 min 0 W/m 9,7 km/h (2 Bft) 100,00 %
15.08.2019 23:20 16,0 C 15,0 C 15,0 C 89 % 1015,9 hPa 0,0 l/m 0 min 0 min 0 W/m 3,2 km/h (1 Bft) 100,00 %
15.08.2019 23:25 15,9 C 15,0 C 15,0 C 90 % 1015,9 hPa 0,0 l/m 0 min 0 min 0 W/m 3,2 km/h (1 Bft) 100,00 %
15.08.2019 23:30 15,9 C 15,0 C 15,0 C 90 % 1016,0 hPa 0,0 l/m 0 min 0 min 0 W/m 6,4 km/h (2 Bft) 100,00 %
15.08.2019 23:35 15,9 C 15,0 C 15,0 C 90 % 1015,9 hPa 0,0 l/m 0 min 0 min 0 W/m 6,4 km/h (2 Bft) 100,00 %
15.08.2019 23:40 15,9 C 15,0 C 15,0 C 90 % 1016,1 hPa 0,0 l/m 0 min 0 min 0 W/m 12,9 km/h (3 Bft) 100,00 %
15.08.2019 23:45 15,9 C 15,6 C 15,0 C 90 % 1016,2 hPa 0,0 l/m 0 min 0 min 0 W/m 9,7 km/h (2 Bft) 100,00 %
15.08.2019 23:50 15,9 C 15,6 C 15,6 C 90 % 1016,3 hPa 0,0 l/m 0 min 0 min 0 W/m 9,7 km/h (2 Bft) 100,00 %
15.08.2019 23:55 15,9 C 15,6 C 15,6 C 90 % 1016,2 hPa 0,0 l/m 0 min 0 min 0 W/m 9,7 km/h (2 Bft) 99,12 %
_ Min-Zeit 06:08 00:08 00:50 18:00 09:04 - - - - 01:30 02:52
Minimum _ 15,9 C 14,4 C 13,9 C 64 % 1009,0 hPa - - - - 0,0 km/h (0 Bft) 91,49 %
_ Max-Zeit 18:10 15:30 15:30 06:22 23:50 00:08 18:08 04:05 12:28 12:26 00:46
Maximum _ 22,9 C 27,2 C 22,8 C 96 % 1016,3 hPa 0,2 l/m 4 min 5 min 1013 W/m 35,4 km/h
S-SO (5 Bft)
100,00 %
Durchschnitt _ 18,4 C 17,9 C 17,0 C 86 % 1011,1 hPa #3,6 l/m #4:42 h #3:46 h 245 W/m 13,4 km/h (3 Bft) 97,61 %
© 2019 W. Hausmann